Wetterdaten: Donnerstag, 10.08.2017
Datum Zeit Temp. Aussen Temp. o. S. +5cm Feuchte Auss BlattFeu 1 Luftdruck Regen Sonnenschein Regendauer Solar Windben Empfang
10.08.2017 00:00 16,6 C 15,6 C 14,4 C 82 % 0 lf 1017,0 hPa 0,0 l/m 0 min 0 min 0 W/m 0,0 km/h (0 Bft) 100,00 %
10.08.2017 00:02 16,6 C 15,6 C 14,4 C 82 % 0 lf 1017,0 hPa 0,0 l/m 0 min 0 min 0 W/m 0,0 km/h (0 Bft) 97,62 %
10.08.2017 00:04 16,5 C 15,6 C 14,4 C 82 % 0 lf 1016,9 hPa 0,0 l/m 0 min 0 min 0 W/m 0,0 km/h (0 Bft) 97,83 %
10.08.2017 00:07 16,5 C 15,6 C 14,4 C 82 % 0 lf 1016,9 hPa 0,0 l/m 0 min 0 min 0 W/m 2,1 km/h (1 Bft) 97,83 %
10.08.2017 00:10 16,5 C 15,6 C 15,0 C 82 % 0 lf 1017,0 hPa 0,0 l/m 0 min 0 min 0 W/m 2,1 km/h (1 Bft) 100,00 %
10.08.2017 00:12 16,5 C 15,6 C 15,0 C 82 % 0 lf 1016,9 hPa 0,0 l/m 0 min 0 min 0 W/m 4,2 km/h (1 Bft) 100,00 %
10.08.2017 00:14 16,5 C 15,6 C 15,0 C 82 % 0 lf 1016,9 hPa 0,0 l/m 0 min 0 min 0 W/m 6,3 km/h (2 Bft) 100,00 %
10.08.2017 00:16 16,4 C 15,6 C 15,0 C 83 % 0 lf 1017,0 hPa 0,0 l/m 0 min 0 min 0 W/m 4,2 km/h (1 Bft) 97,87 %
10.08.2017 00:18 16,5 C 15,6 C 15,0 C 83 % 0 lf 1017,1 hPa 0,0 l/m 0 min 0 min 0 W/m 4,2 km/h (1 Bft) 100,00 %
10.08.2017 00:20 16,4 C 15,6 C 15,0 C 83 % 0 lf 1017,2 hPa 0,0 l/m 0 min 0 min 0 W/m 4,2 km/h (1 Bft) 96,55 %
10.08.2017 00:22 16,4 C 15,6 C 15,0 C 83 % 0 lf 1017,2 hPa 0,0 l/m 0 min 0 min 0 W/m 0,0 km/h (0 Bft) 100,00 %
10.08.2017 00:24 16,4 C 15,6 C 15,0 C 83 % 0 lf 1017,2 hPa 0,0 l/m 0 min 0 min 0 W/m 2,1 km/h (1 Bft) 97,83 %
10.08.2017 00:26 16,4 C 15,6 C 15,0 C 83 % 0 lf 1017,4 hPa 0,0 l/m 0 min 0 min 0 W/m 4,2 km/h (1 Bft) 100,00 %
10.08.2017 00:28 16,4 C 15,6 C 15,0 C 83 % 0 lf 1017,4 hPa 0,0 l/m 0 min 0 min 0 W/m 4,2 km/h (1 Bft) 97,87 %
10.08.2017 00:30 16,4 C 15,6 C 15,0 C 83 % 0 lf 1017,4 hPa 0,0 l/m 0 min 0 min 0 W/m 4,2 km/h (1 Bft) 100,00 %
10.08.2017 00:32 16,4 C 15,6 C 15,0 C 84 % 0 lf 1017,3 hPa 0,0 l/m 0 min 0 min 0 W/m 2,1 km/h (1 Bft) 100,00 %
10.08.2017 00:34 16,4 C 15,6 C 15,0 C 84 % 0 lf 1017,3 hPa 0,0 l/m 0 min 0 min 0 W/m 0,0 km/h (0 Bft) 97,87 %
10.08.2017 00:36 16,4 C 15,6 C 15,0 C 84 % 0 lf 1017,3 hPa 0,0 l/m 0 min 0 min 0 W/m 0,0 km/h (0 Bft) 97,83 %
10.08.2017 00:38 16,4 C 15,6 C 15,0 C 84 % 0 lf 1017,2 hPa 0,0 l/m 0 min 0 min 0 W/m 0,0 km/h (0 Bft) 97,87 %
10.08.2017 00:40 16,4 C 15,6 C 15,0 C 84 % 0 lf 1017,2 hPa 0,0 l/m 0 min 0 min 0 W/m 0,0 km/h (0 Bft) 93,62 %
10.08.2017 00:42 16,4 C 15,6 C 15,0 C 84 % 0 lf 1017,3 hPa 0,0 l/m 0 min 0 min 0 W/m 0,0 km/h (0 Bft) 93,62 %
10.08.2017 00:44 16,4 C 15,6 C 15,0 C 84 % 0 lf 1017,4 hPa 0,0 l/m 0 min 0 min 0 W/m 6,3 km/h (2 Bft) 97,87 %
10.08.2017 00:46 16,4 C 15,6 C 15,0 C 84 % 0 lf 1017,4 hPa 0,0 l/m 0 min 0 min 0 W/m 6,3 km/h (2 Bft) 93,48 %
10.08.2017 00:48 16,3 C 15,6 C 15,0 C 84 % 0 lf 1017,4 hPa 0,0 l/m 0 min 0 min 0 W/m 4,2 km/h (1 Bft) 97,87 %
10.08.2017 00:50 16,3 C 15,6 C 15,0 C 84 % 0 lf 1017,4 hPa 0,0 l/m 0 min 0 min 0 W/m 2,1 km/h (1 Bft) 95,74 %
10.08.2017 00:52 16,3 C 15,6 C 15,0 C 84 % 0 lf 1017,4 hPa 0,0 l/m 0 min 2 min 0 W/m 4,2 km/h (1 Bft) 97,87 %
10.08.2017 00:54 16,3 C 15,6 C 15,0 C 84 % 0 lf 1017,5 hPa 0,0 l/m 0 min 2 min 0 W/m 2,1 km/h (1 Bft) 91,49 %
10.08.2017 00:56 16,3 C 15,6 C 15,0 C 84 % 2 lf 1017,3 hPa 0,0 l/m 0 min 2 min 0 W/m 0,0 km/h (0 Bft) 91,49 %
10.08.2017 00:58 16,3 C 15,6 C 14,4 C 84 % 2 lf 1017,3 hPa 0,0 l/m 0 min 2 min 0 W/m 0,0 km/h (0 Bft) 95,65 %
10.08.2017 01:00 16,3 C 15,6 C 14,4 C 84 % 1 lf 1017,4 hPa 0,0 l/m 0 min 0 min 0 W/m 2,1 km/h (1 Bft) 93,62 %
10.08.2017 01:02 16,3 C 15,6 C 14,4 C 84 % 2 lf 1017,4 hPa 0,0 l/m 0 min 2 min 0 W/m 0,0 km/h (0 Bft) 95,74 %
10.08.2017 01:04 16,3 C 15,6 C 14,4 C 84 % 3 lf 1017,3 hPa 0,0 l/m 0 min 2 min 0 W/m 0,0 km/h (0 Bft) 93,62 %
10.08.2017 01:06 16,3 C 15,6 C 14,4 C 84 % 3 lf 1017,3 hPa 0,0 l/m 0 min 2 min 0 W/m 0,0 km/h (0 Bft) 93,62 %
10.08.2017 01:08 16,3 C 15,6 C 14,4 C 84 % 2 lf 1017,3 hPa 0,0 l/m 0 min 0 min 0 W/m 0,0 km/h (0 Bft) 93,62 %
10.08.2017 01:10 16,2 C 15,6 C 14,4 C 84 % 2 lf 1017,4 hPa 0,0 l/m 0 min 0 min 0 W/m 2,1 km/h (1 Bft) 95,65 %
10.08.2017 01:12 16,2 C 15,6 C 14,4 C 84 % 1 lf 1017,5 hPa 0,0 l/m 0 min 0 min 0 W/m 4,2 km/h (1 Bft) 93,62 %
10.08.2017 01:14 16,2 C 15,6 C 14,4 C 85 % 0 lf 1017,4 hPa 0,0 l/m 0 min 0 min 0 W/m 4,2 km/h (1 Bft) 97,87 %
10.08.2017 01:16 16,2 C 15,6 C 14,4 C 85 % 1 lf 1017,5 hPa 0,0 l/m 0 min 0 min 0 W/m 4,2 km/h (1 Bft) 93,62 %
10.08.2017 01:18 16,2 C 15,6 C 14,4 C 85 % 0 lf 1017,5 hPa 0,0 l/m 0 min 0 min 0 W/m 2,1 km/h (1 Bft) 93,62 %
10.08.2017 01:20 16,2 C 15,0 C 14,4 C 85 % 0 lf 1017,5 hPa 0,0 l/m 0 min 0 min 0 W/m 4,2 km/h (1 Bft) 91,49 %
10.08.2017 01:22 16,2 C 15,0 C 14,4 C 85 % 0 lf 1017,5 hPa 0,0 l/m 0 min 0 min 0 W/m 4,2 km/h (1 Bft) 91,30 %
10.08.2017 01:24 16,2 C 15,0 C 14,4 C 85 % 0 lf 1017,5 hPa 0,0 l/m 0 min 0 min 0 W/m 4,2 km/h (1 Bft) 93,62 %
10.08.2017 01:26 16,2 C 15,0 C 14,4 C 85 % 0 lf 1017,5 hPa 0,0 l/m 0 min 0 min 0 W/m 2,1 km/h (1 Bft) 93,62 %
10.08.2017 01:28 16,2 C 15,0 C 14,4 C 86 % 0 lf 1017,6 hPa 0,0 l/m 0 min 0 min 0 W/m 6,3 km/h (2 Bft) 93,62 %
10.08.2017 01:30 16,2 C 15,0 C 14,4 C 86 % 0 lf 1017,5 hPa 0,0 l/m 0 min 2 min 0 W/m 4,2 km/h (1 Bft) 93,62 %
10.08.2017 01:32 16,2 C 15,0 C 14,4 C 86 % 0 lf 1017,6 hPa 0,0 l/m 0 min 0 min 4 W/m 4,2 km/h (1 Bft) 93,62 %
10.08.2017 01:34 16,2 C 15,0 C 14,4 C 86 % 0 lf 1017,6 hPa 0,0 l/m 0 min 0 min 1 W/m 2,1 km/h (1 Bft) 97,83 %
10.08.2017 01:36 16,2 C 15,0 C 14,4 C 85 % 0 lf 1017,6 hPa 0,0 l/m 0 min 0 min 0 W/m 2,1 km/h (1 Bft) 97,87 %
10.08.2017 01:38 16,2 C 15,0 C 14,4 C 85 % 0 lf 1017,5 hPa 0,0 l/m 0 min 0 min 0 W/m 4,2 km/h (1 Bft) 97,87 %
10.08.2017 01:40 16,2 C 15,0 C 14,4 C 86 % 0 lf 1017,5 hPa 0,0 l/m 0 min 0 min 2 W/m 4,2 km/h (1 Bft) 97,87 %
10.08.2017 01:42 16,1 C 15,0 C 14,4 C 86 % 0 lf 1017,5 hPa 0,0 l/m 0 min 0 min 0 W/m 0,0 km/h (0 Bft) 97,87 %
10.08.2017 01:44 16,1 C 15,0 C 14,4 C 86 % 0 lf 1017,5 hPa 0,0 l/m 0 min 0 min 0 W/m 2,1 km/h (1 Bft) 97,87 %
10.08.2017 01:46 16,1 C 15,0 C 14,4 C 86 % 0 lf 1017,6 hPa 0,0 l/m 0 min 0 min 1 W/m 0,0 km/h (0 Bft) 97,83 %
10.08.2017 01:48 16,1 C 15,0 C 14,4 C 85 % 0 lf 1017,7 hPa 0,0 l/m 0 min 0 min 0 W/m 0,0 km/h (0 Bft) 95,74 %
10.08.2017 01:50 16,1 C 15,0 C 14,4 C 85 % 0 lf 1017,7 hPa 0,0 l/m 0 min 0 min 0 W/m 0,0 km/h (0 Bft) 93,62 %
10.08.2017 01:52 16,1 C 15,0 C 14,4 C 86 % 0 lf 1017,7 hPa 0,0 l/m 0 min 0 min 0 W/m 0,0 km/h (0 Bft) 97,87 %
10.08.2017 01:54 16,1 C 15,0 C 14,4 C 86 % 0 lf 1017,6 hPa 0,0 l/m 0 min 0 min 0 W/m 6,3 km/h (2 Bft) 97,87 %
10.08.2017 01:56 16,1 C 15,0 C 14,4 C 86 % 0 lf 1017,6 hPa 0,0 l/m 0 min 0 min 0 W/m 4,2 km/h (1 Bft) 97,83 %
10.08.2017 01:58 16,0 C 15,0 C 14,4 C 86 % 0 lf 1017,7 hPa 0,0 l/m 0 min 0 min 2 W/m 2,1 km/h (1 Bft) 97,87 %
10.08.2017 02:00 16,0 C 15,0 C 14,4 C 86 % 0 lf 1017,9 hPa 0,0 l/m 0 min 0 min 0 W/m 4,2 km/h (1 Bft) 97,87 %
10.08.2017 02:02 16,0 C 15,0 C 14,4 C 86 % 0 lf 1017,7 hPa 0,0 l/m 0 min 0 min 5 W/m 4,2 km/h (1 Bft) 93,62 %
10.08.2017 02:04 16,0 C 15,0 C 14,4 C 86 % 0 lf 1017,6 hPa 0,0 l/m 0 min 0 min 5 W/m 4,2 km/h (1 Bft) 100,00 %
10.08.2017 02:06 15,9 C 15,0 C 14,4 C 86 % 0 lf 1017,7 hPa 0,0 l/m 0 min 0 min 5 W/m 2,1 km/h (1 Bft) 100,00 %
10.08.2017 02:08 15,9 C 15,0 C 14,4 C 86 % 0 lf 1018,0 hPa 0,0 l/m 0 min 0 min 5 W/m 4,2 km/h (1 Bft) 100,00 %
10.08.2017 02:10 15,9 C 15,0 C 14,4 C 86 % 0 lf 1018,0 hPa 0,0 l/m 0 min 0 min 5 W/m 4,2 km/h (1 Bft) 100,00 %
10.08.2017 02:12 15,9 C 15,0 C 14,4 C 86 % 0 lf 1018,0 hPa 0,0 l/m 0 min 0 min 5 W/m 4,2 km/h (1 Bft) 95,74 %
10.08.2017 02:14 15,9 C 15,0 C 14,4 C 86 % 1 lf 1018,1 hPa 0,0 l/m 0 min 0 min 5 W/m 4,2 km/h (1 Bft) 97,87 %
10.08.2017 02:16 15,9 C 15,0 C 14,4 C 86 % 0 lf 1018,0 hPa 0,0 l/m 0 min 0 min 5 W/m 4,2 km/h (1 Bft) 100,00 %
10.08.2017 02:18 15,9 C 15,0 C 14,4 C 86 % 0 lf 1018,0 hPa 0,0 l/m 0 min 0 min 5 W/m 6,3 km/h (2 Bft) 97,87 %
10.08.2017 02:20 15,9 C 15,0 C 14,4 C 86 % 0 lf 1017,9 hPa 0,0 l/m 0 min 0 min 5 W/m 2,1 km/h (1 Bft) 97,83 %
10.08.2017 02:22 15,9 C 15,0 C 14,4 C 86 % 0 lf 1017,8 hPa 0,0 l/m 0 min 0 min 0 W/m 2,1 km/h (1 Bft) 100,00 %
10.08.2017 02:24 15,9 C 15,6 C 14,4 C 86 % 0 lf 1017,9 hPa 0,0 l/m 0 min 2 min 0 W/m 6,3 km/h (2 Bft) 97,87 %
10.08.2017 02:26 15,9 C 15,6 C 14,4 C 87 % 0 lf 1018,1 hPa 0,0 l/m 0 min 0 min 5 W/m 8,4 km/h (2 Bft) 100,00 %
10.08.2017 02:28 15,9 C 15,6 C 14,4 C 87 % 1 lf 1018,1 hPa 0,0 l/m 0 min 0 min 5 W/m 10,5 km/h (2 Bft) 95,74 %
10.08.2017 02:30 15,8 C 15,6 C 14,4 C 87 % 1 lf 1018,1 hPa 0,0 l/m 0 min 0 min 5 W/m 6,3 km/h (2 Bft) 100,00 %
10.08.2017 02:32 15,8 C 15,6 C 14,4 C 87 % 1 lf 1018,0 hPa 0,0 l/m 0 min 2 min 5 W/m 8,4 km/h (2 Bft) 100,00 %
10.08.2017 02:34 15,8 C 15,6 C 14,4 C 87 % 5 lf 1018,0 hPa 0,0 l/m 0 min 2 min 5 W/m 8,4 km/h (2 Bft) 97,87 %
10.08.2017 02:36 15,8 C 15,6 C 14,4 C 87 % 8 lf 1018,0 hPa 0,0 l/m 0 min 2 min 5 W/m 4,2 km/h (1 Bft) 94,34 %
10.08.2017 02:38 15,8 C 15,6 C 14,4 C 86 % 8 lf 1018,2 hPa 0,0 l/m 0 min 2 min 5 W/m 6,3 km/h (2 Bft) 97,87 %
10.08.2017 02:40 15,8 C 15,6 C 13,9 C 86 % 9 lf 1018,1 hPa 0,0 l/m 0 min 2 min 0 W/m 6,3 km/h (2 Bft) 95,74 %
10.08.2017 02:42 15,8 C 15,0 C 13,9 C 86 % 8 lf 1018,1 hPa 0,0 l/m 0 min 2 min 5 W/m 8,4 km/h (2 Bft) 97,87 %
10.08.2017 02:44 15,8 C 14,4 C 13,9 C 87 % 5 lf 1018,1 hPa 0,0 l/m 0 min 2 min 5 W/m 8,4 km/h (2 Bft) 95,74 %
10.08.2017 02:46 15,8 C 14,4 C 13,9 C 87 % 12 lf 1018,1 hPa 0,0 l/m 0 min 2 min 5 W/m 6,3 km/h (2 Bft) 97,87 %
10.08.2017 02:48 15,8 C 14,4 C 13,9 C 87 % 15 lf 1018,1 hPa 0,2 l/m 0 min 2 min 5 W/m 8,4 km/h (2 Bft) 97,83 %
10.08.2017 02:50 15,9 C 13,9 C 13,3 C 87 % 15 lf 1018,1 hPa 0,0 l/m 0 min 2 min 5 W/m 8,4 km/h (2 Bft) 95,74 %
10.08.2017 02:52 15,9 C 13,9 C 13,3 C 87 % 15 lf 1018,1 hPa 0,0 l/m 0 min 2 min 5 W/m 10,5 km/h (2 Bft) 97,87 %
10.08.2017 02:54 15,9 C 13,9 C 13,3 C 87 % 15 lf 1018,1 hPa 0,0 l/m 0 min 2 min 2 W/m 8,4 km/h (2 Bft) 91,49 %
10.08.2017 02:56 15,9 C 13,9 C 13,3 C 88 % 15 lf 1018,1 hPa 0,2 l/m 0 min 2 min 4 W/m 10,5 km/h (2 Bft) 93,62 %
10.08.2017 02:58 15,9 C 13,9 C 13,3 C 88 % 15 lf 1018,1 hPa 0,0 l/m 0 min 2 min 5 W/m 10,5 km/h (2 Bft) 95,74 %
10.08.2017 03:00 15,9 C 13,9 C 13,3 C 88 % 15 lf 1018,0 hPa 0,0 l/m 0 min 2 min 5 W/m 8,4 km/h (2 Bft) 95,65 %
10.08.2017 03:02 15,9 C 13,9 C 13,3 C 88 % 15 lf 1018,0 hPa 0,2 l/m 0 min 2 min 0 W/m 6,3 km/h (2 Bft) 95,74 %
10.08.2017 03:04 15,9 C 13,9 C 13,3 C 88 % 15 lf 1018,0 hPa 0,0 l/m 0 min 2 min 0 W/m 4,2 km/h (1 Bft) 95,74 %
10.08.2017 03:06 15,9 C 13,9 C 13,3 C 88 % 15 lf 1018,0 hPa 0,0 l/m 0 min 2 min 0 W/m 4,2 km/h (1 Bft) 92,00 %
10.08.2017 03:08 15,9 C 13,9 C 13,3 C 88 % 15 lf 1018,0 hPa 0,0 l/m 0 min 2 min 5 W/m 8,4 km/h (2 Bft) 93,62 %
10.08.2017 03:10 15,9 C 13,9 C 13,3 C 88 % 15 lf 1018,1 hPa 0,0 l/m 0 min 2 min 0 W/m 8,4 km/h (2 Bft) 95,65 %
10.08.2017 03:12 15,9 C 13,9 C 13,3 C 89 % 15 lf 1018,1 hPa 0,2 l/m 0 min 2 min 0 W/m 6,3 km/h (2 Bft) 95,74 %
10.08.2017 03:14 15,9 C 13,9 C 13,3 C 89 % 15 lf 1018,0 hPa 0,0 l/m 0 min 2 min 0 W/m 8,4 km/h (2 Bft) 95,74 %
10.08.2017 03:16 15,9 C 13,9 C 13,3 C 89 % 15 lf 1018,1 hPa 0,0 l/m 0 min 2 min 5 W/m 6,3 km/h (2 Bft) 93,62 %
10.08.2017 03:18 15,9 C 13,9 C 13,3 C 89 % 15 lf 1018,0 hPa 0,2 l/m 0 min 2 min 5 W/m 6,3 km/h (2 Bft) 95,74 %
10.08.2017 03:20 15,8 C 13,9 C 13,3 C 90 % 15 lf 1017,9 hPa 0,0 l/m 0 min 2 min 0 W/m 6,3 km/h (2 Bft) 95,74 %
10.08.2017 03:22 15,8 C 13,9 C 13,3 C 90 % 15 lf 1017,8 hPa 0,0 l/m 0 min 2 min 0 W/m 6,3 km/h (2 Bft) 95,65 %
10.08.2017 03:24 15,8 C 13,9 C 13,3 C 90 % 15 lf 1017,7 hPa 0,2 l/m 0 min 2 min 5 W/m 4,2 km/h (1 Bft) 95,74 %
10.08.2017 03:26 15,8 C 13,9 C 13,3 C 90 % 15 lf 1017,7 hPa 0,0 l/m 0 min 2 min 5 W/m 4,2 km/h (1 Bft) 95,74 %
10.08.2017 03:28 15,7 C 13,9 C 13,3 C 90 % 15 lf 1017,7 hPa 0,0 l/m 0 min 2 min 2 W/m 6,3 km/h (2 Bft) 93,62 %
10.08.2017 03:30 15,7 C 13,9 C 13,3 C 90 % 15 lf 1017,7 hPa 0,0 l/m 0 min 2 min 1 W/m 8,4 km/h (2 Bft) 95,74 %
10.08.2017 03:32 15,7 C 13,9 C 13,3 C 91 % 15 lf 1017,9 hPa 0,0 l/m 0 min 2 min 5 W/m 10,5 km/h (2 Bft) 93,62 %
10.08.2017 03:34 15,6 C 13,9 C 13,3 C 91 % 15 lf 1018,0 hPa 0,2 l/m 0 min 2 min 5 W/m 10,5 km/h (2 Bft) 95,65 %
10.08.2017 03:36 15,6 C 13,9 C 13,3 C 91 % 15 lf 1018,0 hPa 0,0 l/m 0 min 2 min 5 W/m 10,5 km/h (2 Bft) 94,74 %
10.08.2017 03:38 15,5 C 13,9 C 13,3 C 91 % 15 lf 1018,1 hPa 0,0 l/m 0 min 2 min 5 W/m 12,6 km/h (3 Bft) 93,62 %
10.08.2017 03:40 15,5 C 13,9 C 13,3 C 91 % 15 lf 1018,1 hPa 0,0 l/m 0 min 2 min 4 W/m 12,6 km/h (3 Bft) 95,74 %
10.08.2017 03:42 15,4 C 13,9 C 13,3 C 91 % 15 lf 1018,1 hPa 0,0 l/m 0 min 2 min 0 W/m 10,5 km/h (2 Bft) 97,87 %
10.08.2017 03:44 15,4 C 13,9 C 13,3 C 91 % 15 lf 1018,1 hPa 0,0 l/m 0 min 2 min 0 W/m 10,5 km/h (2 Bft) 97,87 %
10.08.2017 03:46 15,3 C 13,9 C 13,3 C 92 % 15 lf 1018,1 hPa 0,0 l/m 0 min 2 min 0 W/m 10,5 km/h (2 Bft) 97,87 %
10.08.2017 03:48 15,3 C 13,9 C 13,3 C 92 % 15 lf 1018,1 hPa 0,0 l/m 0 min 2 min 3 W/m 12,6 km/h (3 Bft) 97,83 %
10.08.2017 03:50 15,2 C 13,9 C 12,8 C 92 % 15 lf 1018,1 hPa 0,0 l/m 0 min 2 min 5 W/m 12,6 km/h (3 Bft) 97,83 %
10.08.2017 03:52 15,2 C 13,9 C 12,8 C 92 % 15 lf 1018,1 hPa 0,0 l/m 0 min 2 min 0 W/m 10,5 km/h (2 Bft) 95,74 %
10.08.2017 03:54 15,1 C 13,9 C 12,8 C 92 % 15 lf 1018,1 hPa 0,2 l/m 0 min 2 min 0 W/m 12,6 km/h (3 Bft) 95,74 %
10.08.2017 03:56 15,1 C 13,9 C 12,8 C 92 % 15 lf 1018,1 hPa 0,0 l/m 0 min 2 min 0 W/m 6,3 km/h (2 Bft) 95,74 %
10.08.2017 03:58 15,1 C 13,9 C 12,8 C 92 % 15 lf 1018,3 hPa 0,0 l/m 0 min 2 min 0 W/m 10,5 km/h (2 Bft) 97,87 %
10.08.2017 04:00 15,0 C 13,9 C 12,8 C 92 % 15 lf 1018,2 hPa 0,0 l/m 0 min 2 min 0 W/m 6,3 km/h (2 Bft) 97,83 %
10.08.2017 04:02 15,0 C 13,9 C 12,8 C 92 % 15 lf 1018,2 hPa 0,0 l/m 0 min 2 min 5 W/m 6,3 km/h (2 Bft) 92,86 %
10.08.2017 04:04 14,9 C 13,9 C 12,8 C 92 % 15 lf 1018,2 hPa 0,0 l/m 0 min 2 min 5 W/m 6,3 km/h (2 Bft) 91,49 %
10.08.2017 04:06 14,9 C 13,3 C 12,8 C 93 % 15 lf 1018,3 hPa 0,0 l/m 0 min 2 min 5 W/m 6,3 km/h (2 Bft) 95,92 %
10.08.2017 04:08 14,9 C 13,9 C 13,3 C 92 % 15 lf 1018,2 hPa 0,0 l/m 0 min 2 min 5 W/m 4,2 km/h (1 Bft) 95,74 %
10.08.2017 04:10 14,9 C 13,9 C 12,8 C 93 % 15 lf 1018,3 hPa 0,0 l/m 0 min 2 min 5 W/m 4,2 km/h (1 Bft) 93,62 %
10.08.2017 04:12 14,8 C 13,9 C 12,8 C 93 % 15 lf 1018,2 hPa 0,0 l/m 0 min 2 min 5 W/m 2,1 km/h (1 Bft) 95,74 %
10.08.2017 04:14 14,8 C 13,9 C 13,3 C 93 % 15 lf 1018,0 hPa 0,2 l/m 0 min 2 min 5 W/m 4,2 km/h (1 Bft) 93,62 %
10.08.2017 04:16 14,8 C 13,9 C 13,3 C 93 % 15 lf 1018,0 hPa 0,0 l/m 0 min 2 min 5 W/m 2,1 km/h (1 Bft) 97,83 %
10.08.2017 04:18 14,8 C 13,9 C 13,3 C 93 % 15 lf 1018,1 hPa 0,0 l/m 0 min 2 min 5 W/m 2,1 km/h (1 Bft) 93,62 %
10.08.2017 04:20 14,8 C 13,9 C 13,3 C 93 % 15 lf 1018,1 hPa 0,0 l/m 0 min 2 min 5 W/m 2,1 km/h (1 Bft) 97,87 %
10.08.2017 04:22 14,8 C 13,9 C 12,8 C 93 % 15 lf 1018,2 hPa 0,0 l/m 0 min 2 min 5 W/m 0,0 km/h (0 Bft) 95,74 %
10.08.2017 04:24 14,7 C 13,9 C 13,3 C 93 % 15 lf 1018,1 hPa 0,2 l/m 0 min 2 min 5 W/m 0,0 km/h (0 Bft) 97,87 %
10.08.2017 04:26 14,7 C 13,9 C 12,8 C 93 % 15 lf 1018,1 hPa 0,0 l/m 0 min 2 min 5 W/m 0,0 km/h (0 Bft) 95,74 %
10.08.2017 04:28 14,7 C 13,3 C 12,8 C 93 % 15 lf 1018,2 hPa 0,2 l/m 0 min 2 min 5 W/m 0,0 km/h (0 Bft) 91,30 %
10.08.2017 04:30 14,7 C 13,3 C 12,8 C 93 % 15 lf 1018,1 hPa 0,0 l/m 0 min 2 min 5 W/m 0,0 km/h (0 Bft) 93,62 %
10.08.2017 04:32 14,7 C 13,9 C 12,8 C 93 % 15 lf 1018,0 hPa 0,0 l/m 0 min 2 min 5 W/m 0,0 km/h (0 Bft) 97,87 %
10.08.2017 04:34 14,7 C 13,9 C 12,8 C 93 % 15 lf 1018,0 hPa 0,2 l/m 0 min 2 min 5 W/m 6,3 km/h (2 Bft) 97,87 %
10.08.2017 04:36 14,7 C 13,9 C 12,8 C 94 % 15 lf 1017,9 hPa 0,2 l/m 0 min 2 min 5 W/m 6,3 km/h (2 Bft) 97,87 %
10.08.2017 04:38 14,7 C 13,9 C 12,8 C 94 % 15 lf 1018,0 hPa 0,0 l/m 0 min 2 min 5 W/m 6,3 km/h (2 Bft) 97,87 %
10.08.2017 04:40 14,7 C 13,9 C 12,8 C 94 % 15 lf 1018,0 hPa 0,0 l/m 0 min 2 min 4 W/m 6,3 km/h (2 Bft) 95,65 %
10.08.2017 04:42 14,7 C 13,9 C 12,8 C 94 % 15 lf 1018,0 hPa 0,0 l/m 0 min 2 min 0 W/m 6,3 km/h (2 Bft) 93,62 %
10.08.2017 04:44 14,7 C 13,9 C 13,3 C 94 % 15 lf 1018,0 hPa 0,2 l/m 0 min 2 min 0 W/m 6,3 km/h (2 Bft) 97,87 %
10.08.2017 04:46 14,7 C 13,9 C 12,8 C 94 % 15 lf 1018,1 hPa 0,0 l/m 0 min 2 min 0 W/m 4,2 km/h (1 Bft) 95,74 %
10.08.2017 04:48 14,7 C 13,9 C 12,8 C 94 % 15 lf 1018,1 hPa 0,0 l/m 0 min 2 min 0 W/m 4,2 km/h (1 Bft) 95,74 %
10.08.2017 04:50 14,7 C 13,9 C 12,8 C 94 % 15 lf 1018,1 hPa 0,2 l/m 0 min 2 min 0 W/m 4,2 km/h (1 Bft) 93,62 %
10.08.2017 04:52 14,7 C 13,9 C 13,3 C 94 % 15 lf 1018,1 hPa 0,0 l/m 0 min 2 min 0 W/m 4,2 km/h (1 Bft) 95,65 %
10.08.2017 04:54 14,7 C 13,9 C 13,3 C 94 % 15 lf 1018,0 hPa 0,0 l/m 0 min 2 min 0 W/m 2,1 km/h (1 Bft) 97,87 %
10.08.2017 04:56 14,7 C 13,9 C 13,3 C 94 % 15 lf 1018,1 hPa 0,0 l/m 0 min 2 min 0 W/m 0,0 km/h (0 Bft) 97,87 %
10.08.2017 04:58 14,6 C 13,9 C 13,3 C 94 % 15 lf 1018,2 hPa 0,2 l/m 0 min 2 min 0 W/m 2,1 km/h (1 Bft) 95,74 %
10.08.2017 05:00 14,6 C 13,9 C 13,3 C 94 % 15 lf 1018,2 hPa 0,0 l/m 0 min 2 min 0 W/m 4,2 km/h (1 Bft) 93,62 %
10.08.2017 05:02 14,6 C 13,9 C 13,3 C 94 % 15 lf 1018,2 hPa 0,0 l/m 0 min 2 min 0 W/m 4,2 km/h (1 Bft) 97,87 %
10.08.2017 05:04 14,6 C 13,9 C 13,3 C 94 % 15 lf 1018,3 hPa 0,2 l/m 0 min 2 min 0 W/m 6,3 km/h (2 Bft) 97,83 %
10.08.2017 05:06 14,6 C 13,9 C 13,3 C 94 % 15 lf 1018,3 hPa 0,0 l/m 0 min 2 min 0 W/m 6,3 km/h (2 Bft) 95,74 %
10.08.2017 05:08 14,7 C 13,9 C 13,3 C 94 % 15 lf 1018,3 hPa 0,0 l/m 0 min 2 min 0 W/m 4,2 km/h (1 Bft) 97,87 %
10.08.2017 05:10 14,6 C 13,9 C 13,3 C 94 % 15 lf 1018,3 hPa 0,0 l/m 0 min 2 min 0 W/m 2,1 km/h (1 Bft) 97,87 %
10.08.2017 05:12 14,6 C 13,9 C 13,3 C 94 % 15 lf 1018,2 hPa 0,0 l/m 0 min 2 min 0 W/m 2,1 km/h (1 Bft) 95,74 %
10.08.2017 05:14 14,6 C 13,9 C 13,3 C 94 % 15 lf 1018,2 hPa 0,0 l/m 0 min 2 min 0 W/m 4,2 km/h (1 Bft) 97,87 %
10.08.2017 05:16 14,6 C 13,9 C 13,3 C 94 % 15 lf 1018,3 hPa 0,2 l/m 0 min 2 min 0 W/m 4,2 km/h (1 Bft) 97,83 %
10.08.2017 05:18 14,6 C 13,9 C 13,3 C 94 % 15 lf 1018,3 hPa 0,0 l/m 0 min 2 min 4 W/m 2,1 km/h (1 Bft) 97,87 %
10.08.2017 05:20 14,6 C 13,9 C 13,3 C 94 % 15 lf 1018,4 hPa 0,0 l/m 0 min 2 min 3 W/m 0,0 km/h (0 Bft) 95,74 %
10.08.2017 05:22 14,6 C 13,9 C 13,3 C 95 % 15 lf 1018,4 hPa 0,2 l/m 0 min 2 min 5 W/m 6,3 km/h (2 Bft) 95,74 %
10.08.2017 05:24 14,6 C 13,9 C 13,3 C 95 % 15 lf 1018,4 hPa 0,0 l/m 0 min 2 min 5 W/m 6,3 km/h (2 Bft) 97,87 %
10.08.2017 05:26 14,6 C 13,9 C 13,3 C 95 % 15 lf 1018,3 hPa 0,0 l/m 0 min 2 min 5 W/m 2,1 km/h (1 Bft) 100,00 %
10.08.2017 05:28 14,6 C 13,9 C 13,3 C 95 % 15 lf 1018,3 hPa 0,0 l/m 0 min 2 min 5 W/m 4,2 km/h (1 Bft) 100,00 %
10.08.2017 05:30 14,6 C 13,9 C 13,3 C 95 % 15 lf 1018,3 hPa 0,0 l/m 0 min 2 min 5 W/m 4,2 km/h (1 Bft) 97,87 %
10.08.2017 05:32 14,6 C 13,9 C 13,3 C 95 % 15 lf 1018,3 hPa 0,0 l/m 0 min 2 min 5 W/m 4,2 km/h (1 Bft) 100,00 %
10.08.2017 05:34 14,6 C 13,9 C 13,3 C 95 % 15 lf 1018,3 hPa 0,0 l/m 0 min 2 min 5 W/m 4,2 km/h (1 Bft) 100,00 %
10.08.2017 05:36 14,6 C 13,9 C 13,3 C 95 % 15 lf 1018,3 hPa 0,0 l/m 0 min 2 min 5 W/m 2,1 km/h (1 Bft) 100,00 %
10.08.2017 05:38 14,6 C 13,9 C 13,3 C 95 % 15 lf 1018,3 hPa 0,2 l/m 0 min 2 min 5 W/m 0,0 km/h (0 Bft) 100,00 %
10.08.2017 05:40 14,6 C 13,9 C 13,3 C 95 % 15 lf 1018,4 hPa 0,0 l/m 0 min 2 min 0 W/m 0,0 km/h (0 Bft) 95,74 %
10.08.2017 05:42 14,6 C 13,9 C 13,3 C 95 % 15 lf 1018,4 hPa 0,0 l/m 0 min 2 min 0 W/m 0,0 km/h (0 Bft) 100,00 %
10.08.2017 05:44 14,6 C 13,9 C 13,3 C 95 % 15 lf 1018,4 hPa 0,0 l/m 0 min 2 min 0 W/m 0,0 km/h (0 Bft) 100,00 %
10.08.2017 05:46 14,6 C 13,9 C 13,3 C 95 % 15 lf 1018,4 hPa 0,0 l/m 0 min 2 min 0 W/m 0,0 km/h (0 Bft) 100,00 %
10.08.2017 05:48 14,6 C 13,9 C 13,3 C 95 % 15 lf 1018,4 hPa 0,0 l/m 0 min 2 min 5 W/m 0,0 km/h (0 Bft) 97,87 %
10.08.2017 05:50 14,5 C 13,9 C 13,3 C 95 % 15 lf 1018,4 hPa 0,0 l/m 0 min 2 min 0 W/m 0,0 km/h (0 Bft) 97,87 %
10.08.2017 05:52 14,5 C 13,9 C 13,3 C 95 % 15 lf 1018,3 hPa 0,0 l/m 0 min 2 min 0 W/m 2,1 km/h (1 Bft) 97,87 %
10.08.2017 05:54 14,5 C 13,9 C 13,3 C 95 % 15 lf 1018,3 hPa 0,0 l/m 0 min 2 min 0 W/m 4,2 km/h (1 Bft) 100,00 %
10.08.2017 05:56 14,5 C 13,9 C 13,3 C 95 % 15 lf 1018,3 hPa 0,0 l/m 0 min 2 min 0 W/m 6,3 km/h (2 Bft) 100,00 %
10.08.2017 05:58 14,5 C 13,9 C 13,3 C 95 % 15 lf 1018,3 hPa 0,0 l/m 0 min 2 min 0 W/m 4,2 km/h (1 Bft) 97,87 %
10.08.2017 06:00 14,5 C 13,9 C 13,3 C 95 % 15 lf 1018,3 hPa 0,2 l/m 0 min 2 min 0 W/m 2,1 km/h (1 Bft) 100,00 %
10.08.2017 06:02 14,5 C 13,9 C 13,3 C 95 % 15 lf 1018,3 hPa 0,0 l/m 0 min 2 min 0 W/m 0,0 km/h (0 Bft) 100,00 %
10.08.2017 06:04 14,5 C 13,9 C 13,3 C 95 % 15 lf 1018,3 hPa 0,0 l/m 0 min 2 min 0 W/m 0,0 km/h (0 Bft) 97,87 %
10.08.2017 06:06 14,5 C 13,9 C 13,3 C 95 % 15 lf 1018,4 hPa 0,0 l/m 0 min 2 min 0 W/m 2,1 km/h (1 Bft) 100,00 %
10.08.2017 06:10 14,5 C 13,9 C 13,3 C 95 % 15 lf 1018,4 hPa 0,0 l/m 0 min 4 min 0 W/m 4,2 km/h (1 Bft) 97,92 %
10.08.2017 06:12 14,5 C 13,9 C 13,3 C 95 % 15 lf 1018,5 hPa 0,0 l/m 0 min 2 min 0 W/m 4,2 km/h (1 Bft) 100,00 %
10.08.2017 06:14 14,5 C 13,9 C 13,3 C 95 % 15 lf 1018,5 hPa 0,0 l/m 0 min 2 min 4 W/m 4,2 km/h (1 Bft) 100,00 %
10.08.2017 06:16 14,5 C 13,9 C 13,3 C 95 % 15 lf 1018,5 hPa 0,0 l/m 0 min 2 min 5 W/m 4,2 km/h (1 Bft) 100,00 %
10.08.2017 06:18 14,5 C 13,9 C 13,3 C 95 % 15 lf 1018,5 hPa 0,2 l/m 0 min 2 min 6 W/m 2,1 km/h (1 Bft) 97,87 %
10.08.2017 06:20 14,5 C 13,9 C 13,3 C 95 % 15 lf 1018,5 hPa 0,0 l/m 0 min 2 min 4 W/m 2,1 km/h (1 Bft) 97,87 %
10.08.2017 06:22 14,5 C 13,9 C 13,3 C 95 % 15 lf 1018,4 hPa 0,0 l/m 0 min 2 min 9 W/m 2,1 km/h (1 Bft) 95,74 %
10.08.2017 06:24 14,5 C 13,9 C 13,3 C 95 % 15 lf 1018,4 hPa 0,0 l/m 0 min 2 min 19 W/m 4,2 km/h (1 Bft) 93,62 %
10.08.2017 06:26 14,5 C 13,9 C 13,3 C 95 % 15 lf 1018,4 hPa 0,0 l/m 0 min 2 min 19 W/m 2,1 km/h (1 Bft) 91,30 %
10.08.2017 06:28 14,5 C 13,9 C 13,3 C 95 % 15 lf 1018,5 hPa 0,0 l/m 0 min 2 min 18 W/m 0,0 km/h (0 Bft) 93,62 %
10.08.2017 06:30 14,5 C 13,9 C 13,3 C 96 % 15 lf 1018,5 hPa 0,2 l/m 0 min 2 min 18 W/m 0,0 km/h (0 Bft) 93,62 %
10.08.2017 06:32 14,5 C 13,9 C 13,3 C 96 % 15 lf 1018,5 hPa 0,0 l/m 0 min 2 min 18 W/m 4,2 km/h (1 Bft) 95,74 %
10.08.2017 06:34 14,5 C 13,9 C 13,3 C 96 % 15 lf 1018,4 hPa 0,0 l/m 0 min 2 min 18 W/m 6,3 km/h (2 Bft) 95,74 %
10.08.2017 06:36 14,5 C 13,9 C 13,3 C 95 % 15 lf 1018,4 hPa 0,0 l/m 0 min 2 min 19 W/m 2,1 km/h (1 Bft) 95,74 %
10.08.2017 06:38 14,5 C 13,9 C 13,3 C 96 % 15 lf 1018,4 hPa 0,0 l/m 0 min 2 min 19 W/m 6,3 km/h (2 Bft) 91,30 %
10.08.2017 06:40 14,5 C 13,9 C 13,3 C 96 % 15 lf 1018,3 hPa 0,0 l/m 0 min 2 min 19 W/m 4,2 km/h (1 Bft) 95,74 %
10.08.2017 06:42 14,5 C 13,9 C 13,3 C 96 % 15 lf 1018,3 hPa 0,0 l/m 0 min 2 min 19 W/m 6,3 km/h (2 Bft) 93,62 %
10.08.2017 06:44 14,5 C 13,9 C 13,3 C 95 % 15 lf 1018,3 hPa 0,0 l/m 0 min 2 min 19 W/m 4,2 km/h (1 Bft) 95,74 %
10.08.2017 06:46 14,6 C 13,9 C 13,3 C 96 % 15 lf 1018,2 hPa 0,2 l/m 0 min 2 min 20 W/m 4,2 km/h (1 Bft) 91,49 %
10.08.2017 06:48 14,6 C 13,9 C 13,3 C 96 % 15 lf 1018,3 hPa 0,0 l/m 0 min 2 min 19 W/m 6,3 km/h (2 Bft) 91,30 %
10.08.2017 06:50 14,6 C 13,9 C 13,3 C 96 % 15 lf 1018,2 hPa 0,0 l/m 0 min 2 min 19 W/m 6,3 km/h (2 Bft) 91,49 %
10.08.2017 06:52 14,6 C 13,9 C 13,3 C 96 % 15 lf 1018,2 hPa 0,0 l/m 0 min 2 min 19 W/m 6,3 km/h (2 Bft) 91,49 %
10.08.2017 06:54 14,6 C 13,9 C 13,3 C 96 % 15 lf 1018,3 hPa 0,2 l/m 0 min 2 min 19 W/m 4,2 km/h (1 Bft) 91,49 %
10.08.2017 06:56 14,6 C 13,9 C 13,3 C 96 % 15 lf 1018,3 hPa 0,0 l/m 0 min 2 min 19 W/m 6,3 km/h (2 Bft) 93,62 %
10.08.2017 06:58 14,6 C 13,9 C 13,3 C 96 % 15 lf 1018,3 hPa 0,0 l/m 0 min 2 min 18 W/m 4,2 km/h (1 Bft) 91,49 %
10.08.2017 07:00 14,6 C 13,9 C 13,3 C 96 % 15 lf 1018,4 hPa 0,0 l/m 0 min 2 min 18 W/m 4,2 km/h (1 Bft) 89,13 %
10.08.2017 07:02 14,6 C 13,9 C 13,3 C 96 % 15 lf 1018,4 hPa 0,0 l/m 0 min 2 min 19 W/m 4,2 km/h (1 Bft) 87,23 %
10.08.2017 07:04 14,5 C 13,9 C 13,3 C 96 % 15 lf 1018,3 hPa 0,0 l/m 0 min 2 min 18 W/m 6,3 km/h (2 Bft) 87,23 %
10.08.2017 07:06 14,6 C 13,9 C 13,3 C 96 % 15 lf 1018,4 hPa 0,0 l/m 0 min 2 min 19 W/m 4,2 km/h (1 Bft) 93,62 %
10.08.2017 07:08 14,6 C 13,9 C 13,3 C 96 % 15 lf 1018,4 hPa 0,0 l/m 0 min 2 min 19 W/m 4,2 km/h (1 Bft) 93,62 %
10.08.2017 07:10 14,6 C 13,9 C 13,3 C 96 % 15 lf 1018,3 hPa 0,0 l/m 0 min 2 min 19 W/m 6,3 km/h (2 Bft) 93,62 %
10.08.2017 07:12 14,6 C 13,9 C 13,3 C 96 % 15 lf 1018,3 hPa 0,0 l/m 0 min 2 min 20 W/m 6,3 km/h (2 Bft) 89,13 %
10.08.2017 07:14 14,6 C 13,9 C 13,3 C 96 % 15 lf 1018,3 hPa 0,0 l/m 0 min 2 min 20 W/m 6,3 km/h (2 Bft) 91,49 %
10.08.2017 07:16 14,6 C 13,9 C 13,3 C 96 % 15 lf 1018,3 hPa 0,0 l/m 0 min 2 min 19 W/m 4,2 km/h (1 Bft) 95,74 %
10.08.2017 07:18 14,6 C 13,9 C 13,3 C 96 % 15 lf 1018,3 hPa 0,0 l/m 0 min 2 min 20 W/m 4,2 km/h (1 Bft) 89,36 %
10.08.2017 07:20 14,6 C 13,9 C 13,3 C 96 % 15 lf 1018,3 hPa 0,0 l/m 0 min 2 min 20 W/m 6,3 km/h (2 Bft) 93,62 %
10.08.2017 07:22 14,6 C 13,9 C 13,3 C 96 % 15 lf 1018,3 hPa 0,0 l/m 0 min 0 min 20 W/m 6,3 km/h (2 Bft) 93,62 %
10.08.2017 07:24 14,6 C 13,9 C 13,3 C 96 % 15 lf 1018,3 hPa 0,0 l/m 0 min 2 min 20 W/m 6,3 km/h (2 Bft) 97,83 %
10.08.2017 07:26 14,6 C 13,9 C 13,3 C 96 % 15 lf 1018,3 hPa 0,0 l/m 0 min 0 min 20 W/m 4,2 km/h (1 Bft) 93,62 %
10.08.2017 07:28 14,5 C 13,9 C 13,3 C 96 % 15 lf 1018,2 hPa 0,0 l/m 0 min 2 min 20 W/m 4,2 km/h (1 Bft) 97,87 %
10.08.2017 07:30 14,5 C 13,9 C 13,3 C 96 % 15 lf 1018,3 hPa 0,0 l/m 0 min 2 min 20 W/m 4,2 km/h (1 Bft) 97,87 %
10.08.2017 07:32 14,5 C 13,9 C 13,3 C 96 % 15 lf 1018,3 hPa 0,0 l/m 0 min 2 min 21 W/m 4,2 km/h (1 Bft) 95,74 %
10.08.2017 07:34 14,5 C 13,9 C 13,3 C 96 % 15 lf 1018,3 hPa 0,2 l/m 0 min 2 min 20 W/m 0,0 km/h (0 Bft) 91,49 %
10.08.2017 07:36 14,5 C 13,9 C 13,3 C 96 % 15 lf 1018,2 hPa 0,0 l/m 0 min 2 min 21 W/m 6,3 km/h (2 Bft) 98,18 %
10.08.2017 07:38 14,6 C 13,9 C 13,3 C 96 % 15 lf 1018,3 hPa 0,0 l/m 0 min 2 min 21 W/m 6,3 km/h (2 Bft) 95,74 %
10.08.2017 07:40 14,5 C 13,9 C 13,3 C 96 % 15 lf 1018,3 hPa 0,0 l/m 0 min 2 min 21 W/m 4,2 km/h (1 Bft) 97,83 %
10.08.2017 07:42 14,5 C 13,9 C 13,3 C 96 % 15 lf 1018,3 hPa 0,0 l/m 0 min 2 min 20 W/m 4,2 km/h (1 Bft) 95,74 %
10.08.2017 07:44 14,5 C 13,9 C 13,3 C 96 % 15 lf 1018,2 hPa 0,0 l/m 0 min 2 min 20 W/m 4,2 km/h (1 Bft) 95,74 %
10.08.2017 07:46 14,5 C 13,9 C 13,3 C 96 % 15 lf 1018,2 hPa 0,0 l/m 0 min 2 min 20 W/m 4,2 km/h (1 Bft) 97,87 %
10.08.2017 07:48 14,5 C 13,9 C 13,3 C 96 % 15 lf 1018,3 hPa 0,2 l/m 0 min 2 min 21 W/m 4,2 km/h (1 Bft) 97,87 %
10.08.2017 07:50 14,6 C 13,9 C 13,3 C 96 % 15 lf 1018,4 hPa 0,0 l/m 0 min 2 min 21 W/m 4,2 km/h (1 Bft) 93,48 %
10.08.2017 07:52 14,6 C 13,9 C 13,3 C 96 % 15 lf 1018,4 hPa 0,0 l/m 0 min 2 min 20 W/m 4,2 km/h (1 Bft) 100,00 %
10.08.2017 07:54 14,6 C 13,9 C 13,3 C 96 % 15 lf 1018,4 hPa 0,0 l/m 0 min 2 min 21 W/m 4,2 km/h (1 Bft) 100,00 %
10.08.2017 07:56 14,6 C 13,9 C 13,3 C 96 % 15 lf 1018,4 hPa 0,0 l/m 0 min 2 min 21 W/m 2,1 km/h (1 Bft) 100,00 %
10.08.2017 07:58 14,6 C 13,9 C 13,3 C 96 % 15 lf 1018,4 hPa 0,0 l/m 0 min 2 min 20 W/m 2,1 km/h (1 Bft) 100,00 %
10.08.2017 08:00 14,6 C 13,9 C 13,3 C 96 % 15 lf 1018,5 hPa 0,0 l/m 0 min 2 min 20 W/m 4,2 km/h (1 Bft) 100,00 %
10.08.2017 08:02 14,6 C 13,9 C 13,3 C 96 % 15 lf 1018,5 hPa 0,0 l/m 0 min 2 min 20 W/m 4,2 km/h (1 Bft) 97,96 %
10.08.2017 08:04 14,6 C 13,9 C 13,3 C 96 % 15 lf 1018,6 hPa 0,0 l/m 0 min 2 min 21 W/m 4,2 km/h (1 Bft) 100,00 %
10.08.2017 08:06 14,6 C 13,9 C 13,3 C 96 % 15 lf 1018,7 hPa 0,0 l/m 0 min 2 min 21 W/m 4,2 km/h (1 Bft) 100,00 %
10.08.2017 08:08 14,6 C 13,9 C 13,3 C 96 % 15 lf 1018,7 hPa 0,0 l/m 0 min 2 min 21 W/m 6,3 km/h (2 Bft) 93,62 %
10.08.2017 08:10 14,6 C 13,9 C 13,3 C 96 % 15 lf 1018,7 hPa 0,0 l/m 0 min 2 min 21 W/m 4,2 km/h (1 Bft) 100,00 %
10.08.2017 08:12 14,6 C 13,9 C 13,3 C 96 % 15 lf 1018,9 hPa 0,0 l/m 0 min 2 min 21 W/m 2,1 km/h (1 Bft) 100,00 %
10.08.2017 08:14 14,6 C 13,9 C 13,3 C 96 % 15 lf 1018,9 hPa 0,0 l/m 0 min 2 min 20 W/m 4,2 km/h (1 Bft) 97,87 %
10.08.2017 08:16 14,6 C 13,9 C 13,3 C 96 % 15 lf 1018,9 hPa 0,0 l/m 0 min 2 min 20 W/m 2,1 km/h (1 Bft) 97,87 %
10.08.2017 08:18 14,6 C 13,9 C 13,3 C 96 % 15 lf 1018,9 hPa 0,0 l/m 0 min 2 min 21 W/m 2,1 km/h (1 Bft) 100,00 %
10.08.2017 08:20 14,6 C 13,9 C 13,3 C 96 % 15 lf 1018,9 hPa 0,0 l/m 0 min 2 min 21 W/m 2,1 km/h (1 Bft) 100,00 %
10.08.2017 08:22 14,6 C 13,9 C 13,3 C 96 % 15 lf 1018,8 hPa 0,0 l/m 0 min 2 min 21 W/m 2,1 km/h (1 Bft) 100,00 %
10.08.2017 08:24 14,6 C 13,9 C 13,3 C 96 % 15 lf 1018,8 hPa 0,0 l/m 0 min 2 min 21 W/m 0,0 km/h (0 Bft) 95,74 %
10.08.2017 08:26 14,6 C 13,9 C 13,3 C 96 % 15 lf 1018,7 hPa 0,0 l/m 0 min 2 min 21 W/m 0,0 km/h (0 Bft) 95,74 %
10.08.2017 08:28 14,6 C 13,9 C 13,3 C 96 % 15 lf 1018,6 hPa 0,2 l/m 0 min 2 min 21 W/m 2,1 km/h (1 Bft) 100,00 %
10.08.2017 08:30 14,6 C 13,9 C 13,3 C 96 % 15 lf 1018,6 hPa 0,0 l/m 0 min 2 min 97 W/m 4,2 km/h (1 Bft) 97,87 %
10.08.2017 08:32 14,6 C 13,9 C 13,3 C 96 % 15 lf 1018,5 hPa 0,0 l/m 0 min 2 min 139 W/m 2,1 km/h (1 Bft) 91,84 %
10.08.2017 08:34 14,6 C 13,9 C 13,3 C 96 % 15 lf 1018,6 hPa 0,2 l/m 0 min 2 min 134 W/m 4,2 km/h (1 Bft) 97,87 %
10.08.2017 08:36 14,6 C 13,9 C 13,3 C 96 % 15 lf 1018,5 hPa 0,0 l/m 0 min 2 min 138 W/m 4,2 km/h (1 Bft) 97,87 %
10.08.2017 08:38 14,6 C 13,9 C 13,3 C 96 % 15 lf 1018,5 hPa 0,0 l/m 0 min 2 min 130 W/m 4,2 km/h (1 Bft) 100,00 %
10.08.2017 08:40 14,6 C 13,9 C 13,3 C 96 % 15 lf 1018,5 hPa 0,0 l/m 0 min 2 min 128 W/m 4,2 km/h (1 Bft) 97,83 %
10.08.2017 08:42 14,6 C 14,4 C 13,3 C 97 % 15 lf 1018,5 hPa 0,2 l/m 0 min 2 min 127 W/m 4,2 km/h (1 Bft) 100,00 %
10.08.2017 08:44 14,6 C 14,4 C 13,3 C 97 % 15 lf 1018,6 hPa 0,0 l/m 0 min 2 min 129 W/m 4,2 km/h (1 Bft) 93,62 %
10.08.2017 08:46 14,6 C 14,4 C 13,3 C 97 % 15 lf 1018,6 hPa 0,2 l/m 0 min 2 min 112 W/m 4,2 km/h (1 Bft) 95,74 %
10.08.2017 08:48 14,6 C 14,4 C 13,3 C 97 % 15 lf 1018,6 hPa 0,0 l/m 0 min 2 min 68 W/m 4,2 km/h (1 Bft) 97,87 %
10.08.2017 08:50 14,6 C 14,4 C 13,3 C 97 % 15 lf 1018,6 hPa 0,0 l/m 0 min 2 min 66 W/m 6,3 km/h (2 Bft) 93,62 %
10.08.2017 08:52 14,6 C 14,4 C 13,3 C 97 % 15 lf 1018,6 hPa 0,0 l/m 0 min 2 min 70 W/m 4,2 km/h (1 Bft) 97,83 %
10.08.2017 08:54 14,6 C 14,4 C 13,3 C 97 % 15 lf 1018,6 hPa 0,0 l/m 0 min 2 min 69 W/m 4,2 km/h (1 Bft) 93,62 %
10.08.2017 08:56 14,6 C 14,4 C 13,3 C 97 % 15 lf 1018,7 hPa 0,0 l/m 0 min 2 min 71 W/m 4,2 km/h (1 Bft) 97,87 %
10.08.2017 08:58 14,6 C 14,4 C 13,3 C 97 % 15 lf 1018,7 hPa 0,0 l/m 0 min 2 min 69 W/m 4,2 km/h (1 Bft) 95,74 %
10.08.2017 09:00 14,6 C 14,4 C 13,3 C 97 % 15 lf 1018,7 hPa 0,0 l/m 0 min 2 min 68 W/m 4,2 km/h (1 Bft) 93,62 %
10.08.2017 09:02 14,6 C 14,4 C 13,3 C 97 % 15 lf 1018,8 hPa 0,0 l/m 0 min 2 min 69 W/m 2,1 km/h (1 Bft) 97,87 %
10.08.2017 09:04 14,6 C 14,4 C 13,3 C 97 % 15 lf 1018,8 hPa 0,0 l/m 0 min 2 min 69 W/m 2,1 km/h (1 Bft) 97,83 %
10.08.2017 09:06 14,6 C 14,4 C 13,3 C 97 % 15 lf 1018,9 hPa 0,0 l/m 0 min 2 min 66 W/m 2,1 km/h (1 Bft) 95,83 %
10.08.2017 09:08 14,6 C 14,4 C 13,3 C 97 % 15 lf 1018,9 hPa 0,0 l/m 0 min 2 min 65 W/m 4,2 km/h (1 Bft) 93,62 %
10.08.2017 09:10 14,6 C 14,4 C 13,3 C 97 % 15 lf 1019,0 hPa 0,0 l/m 0 min 2 min 66 W/m 4,2 km/h (1 Bft) 95,65 %
10.08.2017 09:12 14,6 C 14,4 C 13,3 C 97 % 15 lf 1019,1 hPa 0,0 l/m 0 min 2 min 68 W/m 4,2 km/h (1 Bft) 95,74 %
10.08.2017 09:14 14,6 C 14,4 C 13,3 C 97 % 15 lf 1019,1 hPa 0,0 l/m 0 min 2 min 67 W/m 2,1 km/h (1 Bft) 95,74 %
10.08.2017 09:16 14,6 C 14,4 C 13,3 C 97 % 15 lf 1019,1 hPa 0,2 l/m 0 min 2 min 67 W/m 4,2 km/h (1 Bft) 93,62 %
10.08.2017 09:18 14,6 C 14,4 C 13,3 C 97 % 15 lf 1019,1 hPa 0,0 l/m 0 min 2 min 66 W/m 2,1 km/h (1 Bft) 100,00 %
10.08.2017 09:20 14,6 C 14,4 C 13,9 C 97 % 15 lf 1019,1 hPa 0,0 l/m 0 min 2 min 67 W/m 2,1 km/h (1 Bft) 97,83 %
10.08.2017 09:22 14,6 C 14,4 C 13,9 C 97 % 15 lf 1019,1 hPa 0,0 l/m 0 min 2 min 68 W/m 4,2 km/h (1 Bft) 95,74 %
10.08.2017 09:24 14,6 C 14,4 C 13,9 C 97 % 15 lf 1019,1 hPa 0,0 l/m 0 min 2 min 68 W/m 4,2 km/h (1 Bft) 95,74 %
10.08.2017 09:26 14,6 C 14,4 C 13,9 C 97 % 15 lf 1019,2 hPa 0,0 l/m 0 min 2 min 67 W/m 2,1 km/h (1 Bft) 97,87 %
10.08.2017 09:28 14,6 C 14,4 C 13,9 C 97 % 15 lf 1019,2 hPa 0,2 l/m 0 min 2 min 69 W/m 0,0 km/h (0 Bft) 97,87 %
10.08.2017 09:30 14,7 C 14,4 C 13,9 C 97 % 15 lf 1019,1 hPa 0,0 l/m 0 min 2 min 68 W/m 2,1 km/h (1 Bft) 97,87 %
10.08.2017 09:32 14,7 C 14,4 C 13,9 C 97 % 15 lf 1019,1 hPa 0,0 l/m 0 min 2 min 69 W/m 2,1 km/h (1 Bft) 97,83 %
10.08.2017 09:34 14,7 C 14,4 C 13,9 C 97 % 15 lf 1018,9 hPa 0,0 l/m 0 min 2 min 70 W/m 4,2 km/h (1 Bft) 93,62 %
10.08.2017 09:36 14,7 C 14,4 C 13,9 C 97 % 15 lf 1018,9 hPa 0,0 l/m 0 min 2 min 68 W/m 4,2 km/h (1 Bft) 95,74 %
10.08.2017 09:38 14,7 C 14,4 C 13,9 C 97 % 15 lf 1018,9 hPa 0,0 l/m 0 min 2 min 70 W/m 6,3 km/h (2 Bft) 97,87 %
10.08.2017 09:40 14,7 C 14,4 C 13,9 C 97 % 15 lf 1018,9 hPa 0,2 l/m 0 min 2 min 73 W/m 6,3 km/h (2 Bft) 95,74 %
10.08.2017 09:42 14,7 C 14,4 C 13,9 C 97 % 15 lf 1019,0 hPa 0,0 l/m 0 min 2 min 73 W/m 6,3 km/h (2 Bft) 100,00 %
10.08.2017 09:44 14,7 C 14,4 C 13,9 C 97 % 15 lf 1019,1 hPa 0,0 l/m 0 min 2 min 71 W/m 6,3 km/h (2 Bft) 95,74 %
10.08.2017 09:46 14,7 C 14,4 C 13,9 C 97 % 15 lf 1019,2 hPa 0,0 l/m 0 min 2 min 69 W/m 6,3 km/h (2 Bft) 97,83 %
10.08.2017 09:48 14,8 C 14,4 C 13,9 C 97 % 15 lf 1019,2 hPa 0,2 l/m 0 min 2 min 69 W/m 10,5 km/h (2 Bft) 97,87 %
10.08.2017 09:50 14,8 C 14,4 C 13,9 C 97 % 15 lf 1019,2 hPa 0,0 l/m 0 min 2 min 70 W/m 10,5 km/h (2 Bft) 95,74 %
10.08.2017 09:52 14,8 C 14,4 C 13,9 C 97 % 15 lf 1019,1 hPa 0,0 l/m 0 min 2 min 73 W/m 10,5 km/h (2 Bft) 95,74 %
10.08.2017 09:54 14,8 C 14,4 C 13,9 C 97 % 15 lf 1019,1 hPa 0,0 l/m 0 min 2 min 73 W/m 8,4 km/h (2 Bft) 95,74 %
10.08.2017 09:56 14,8 C 14,4 C 13,9 C 97 % 15 lf 1019,1 hPa 0,0 l/m 0 min 2 min 72 W/m 6,3 km/h (2 Bft) 97,83 %
10.08.2017 09:58 14,8 C 14,4 C 13,9 C 97 % 15 lf 1019,1 hPa 0,0 l/m 0 min 2 min 70 W/m 8,4 km/h (2 Bft) 95,74 %
10.08.2017 10:00 14,8 C 14,4 C 13,9 C 97 % 15 lf 1019,1 hPa 0,0 l/m 0 min 2 min 73 W/m 8,4 km/h (2 Bft) 97,87 %
10.08.2017 10:02 14,9 C 14,4 C 13,9 C 97 % 15 lf 1019,2 hPa 0,0 l/m 0 min 2 min 75 W/m 6,3 km/h (2 Bft) 93,62 %
10.08.2017 10:04 14,9 C 15,0 C 13,9 C 97 % 15 lf 1019,1 hPa 0,0 l/m 0 min 2 min 78 W/m 8,4 km/h (2 Bft) 91,49 %
10.08.2017 10:06 14,9 C 15,0 C 13,9 C 97 % 15 lf 1019,2 hPa 0,0 l/m 0 min 2 min 79 W/m 10,5 km/h (2 Bft) 95,74 %
10.08.2017 10:08 14,9 C 15,0 C 13,9 C 97 % 15 lf 1019,1 hPa 0,0 l/m 0 min 2 min 122 W/m 10,5 km/h (2 Bft) 93,48 %
10.08.2017 10:10 14,9 C 15,0 C 13,9 C 97 % 15 lf 1019,1 hPa 0,0 l/m 0 min 2 min 179 W/m 10,5 km/h (2 Bft) 93,62 %
10.08.2017 10:12 14,9 C 15,0 C 14,4 C 97 % 15 lf 1019,1 hPa 0,0 l/m 0 min 2 min 185 W/m 8,4 km/h (2 Bft) 95,74 %
10.08.2017 10:14 14,9 C 15,0 C 14,4 C 97 % 15 lf 1019,2 hPa 0,0 l/m 0 min 2 min 187 W/m 4,2 km/h (1 Bft) 95,74 %
10.08.2017 10:16 14,9 C 15,0 C 14,4 C 97 % 15 lf 1019,3 hPa 0,0 l/m 0 min 2 min 181 W/m 6,3 km/h (2 Bft) 93,62 %
10.08.2017 10:18 15,0 C 15,0 C 14,4 C 97 % 15 lf 1019,3 hPa 0,0 l/m 0 min 2 min 178 W/m 8,4 km/h (2 Bft) 95,74 %
10.08.2017 10:20 15,0 C 15,0 C 14,4 C 97 % 15 lf 1019,3 hPa 0,2 l/m 0 min 2 min 176 W/m 8,4 km/h (2 Bft) 91,30 %
10.08.2017 10:22 15,0 C 15,0 C 13,9 C 97 % 15 lf 1019,4 hPa 0,0 l/m 0 min 2 min 176 W/m 6,3 km/h (2 Bft) 95,74 %
10.08.2017 10:24 15,1 C 15,0 C 14,4 C 97 % 15 lf 1019,3 hPa 0,0 l/m 0 min 2 min 176 W/m 6,3 km/h (2 Bft) 95,74 %
10.08.2017 10:26 15,1 C 15,0 C 14,4 C 97 % 15 lf 1019,2 hPa 0,0 l/m 0 min 2 min 177 W/m 10,5 km/h (2 Bft) 93,62 %
10.08.2017 10:28 15,1 C 15,0 C 14,4 C 97 % 15 lf 1019,2 hPa 0,0 l/m 0 min 2 min 184 W/m 12,6 km/h (3 Bft) 95,74 %
10.08.2017 10:30 15,1 C 15,0 C 14,4 C 97 % 15 lf 1019,2 hPa 0,0 l/m 0 min 2 min 183 W/m 12,6 km/h (3 Bft) 95,74 %
10.08.2017 10:32 15,1 C 15,0 C 14,4 C 97 % 15 lf 1019,2 hPa 0,0 l/m 0 min 2 min 181 W/m 10,5 km/h (2 Bft) 93,48 %
10.08.2017 10:34 15,1 C 15,0 C 14,4 C 97 % 15 lf 1019,2 hPa 0,0 l/m 0 min 0 min 179 W/m 8,4 km/h (2 Bft) 95,74 %
10.08.2017 10:36 15,1 C 15,0 C 14,4 C 97 % 15 lf 1019,1 hPa 0,0 l/m 0 min 0 min 188 W/m 8,4 km/h (2 Bft) 95,74 %
10.08.2017 10:38 15,1 C 15,6 C 14,4 C 97 % 15 lf 1019,1 hPa 0,0 l/m 0 min 0 min 193 W/m 8,4 km/h (2 Bft) 95,74 %
10.08.2017 10:40 15,1 C 15,6 C 15,0 C 97 % 15 lf 1019,1 hPa 0,0 l/m 0 min 0 min 202 W/m 8,4 km/h (2 Bft) 93,62 %
10.08.2017 10:42 15,1 C 15,6 C 15,0 C 97 % 15 lf 1019,1 hPa 0,0 l/m 0 min 0 min 208 W/m 8,4 km/h (2 Bft) 91,30 %
10.08.2017 10:44 15,2 C 15,6 C 15,0 C 98 % 15 lf 1019,2 hPa 0,0 l/m 0 min 0 min 210 W/m 12,6 km/h (3 Bft) 93,62 %
10.08.2017 10:46 15,2 C 15,6 C 15,6 C 98 % 15 lf 1019,3 hPa 0,0 l/m 0 min 0 min 203 W/m 8,4 km/h (2 Bft) 93,62 %
10.08.2017 10:48 15,3 C 16,1 C 15,0 C 98 % 15 lf 1019,4 hPa 0,0 l/m 0 min 0 min 201 W/m 6,3 km/h (2 Bft) 93,62 %
10.08.2017 10:50 15,3 C 16,1 C 15,0 C 98 % 15 lf 1019,5 hPa 0,0 l/m 0 min 0 min 194 W/m 2,1 km/h (1 Bft) 95,74 %
10.08.2017 10:52 15,3 C 16,1 C 15,0 C 98 % 15 lf 1019,5 hPa 0,0 l/m 0 min 0 min 190 W/m 4,2 km/h (1 Bft) 95,74 %
10.08.2017 10:54 15,3 C 16,1 C 15,6 C 98 % 15 lf 1019,6 hPa 0,0 l/m 0 min 0 min 190 W/m 4,2 km/h (1 Bft) 93,48 %
10.08.2017 10:56 15,4 C 16,1 C 15,6 C 98 % 15 lf 1019,6 hPa 0,0 l/m 0 min 2 min 192 W/m 4,2 km/h (1 Bft) 91,49 %
10.08.2017 10:58 15,4 C 16,1 C 15,0 C 98 % 15 lf 1019,6 hPa 0,0 l/m 0 min 2 min 187 W/m 6,3 km/h (2 Bft) 91,49 %
10.08.2017 11:00 15,4 C 15,6 C 15,0 C 98 % 15 lf 1019,5 hPa 0,0 l/m 0 min 2 min 189 W/m 6,3 km/h (2 Bft) 95,74 %
10.08.2017 11:02 15,4 C 16,1 C 15,0 C 98 % 15 lf 1019,4 hPa 0,0 l/m 0 min 2 min 198 W/m 6,3 km/h (2 Bft) 93,62 %
10.08.2017 11:04 15,5 C 15,6 C 15,0 C 98 % 15 lf 1019,3 hPa 0,0 l/m 0 min 2 min 202 W/m 8,4 km/h (2 Bft) 95,74 %
10.08.2017 11:06 15,5 C 16,1 C 15,0 C 98 % 15 lf 1019,4 hPa 0,0 l/m 0 min 0 min 207 W/m 6,3 km/h (2 Bft) 97,83 %
10.08.2017 11:08 15,5 C 16,1 C 15,0 C 98 % 15 lf 1019,4 hPa 0,0 l/m 0 min 2 min 206 W/m 4,2 km/h (1 Bft) 95,74 %
10.08.2017 11:10 15,5 C 16,1 C 15,0 C 98 % 15 lf 1019,5 hPa 0,0 l/m 0 min 0 min 207 W/m 6,3 km/h (2 Bft) 97,87 %
10.08.2017 11:12 15,6 C 16,1 C 15,0 C 98 % 15 lf 1019,7 hPa 0,0 l/m 0 min 2 min 207 W/m 6,3 km/h (2 Bft) 100,00 %
10.08.2017 11:14 15,6 C 16,1 C 15,6 C 98 % 15 lf 1019,7 hPa 0,0 l/m 0 min 0 min 203 W/m 6,3 km/h (2 Bft) 100,00 %
10.08.2017 11:16 15,6 C 16,1 C 15,0 C 98 % 15 lf 1019,7 hPa 0,0 l/m 0 min 0 min 204 W/m 4,2 km/h (1 Bft) 95,74 %
10.08.2017 11:18 15,6 C 16,1 C 15,6 C 98 % 15 lf 1019,8 hPa 0,0 l/m 0 min 0 min 203 W/m 6,3 km/h (2 Bft) 97,83 %
10.08.2017 11:20 15,6 C 16,1 C 15,0 C 98 % 15 lf 1019,7 hPa 0,0 l/m 0 min 0 min 205 W/m 6,3 km/h (2 Bft) 100,00 %
10.08.2017 11:22 15,6 C 16,1 C 15,0 C 98 % 15 lf 1019,7 hPa 0,0 l/m 0 min 0 min 211 W/m 8,4 km/h (2 Bft) 100,00 %
10.08.2017 11:24 15,6 C 16,1 C 15,0 C 98 % 15 lf 1019,7 hPa 0,0 l/m 0 min 0 min 218 W/m 8,4 km/h (2 Bft) 100,00 %
10.08.2017 11:26 15,6 C 16,1 C 15,0 C 98 % 15 lf 1019,7 hPa 0,0 l/m 0 min 0 min 218 W/m 8,4 km/h (2 Bft) 97,87 %
10.08.2017 11:28 15,6 C 15,6 C 15,0 C 98 % 15 lf 1019,7 hPa 0,0 l/m 0 min 0 min 214 W/m 10,5 km/h (2 Bft) 100,00 %
10.08.2017 11:30 15,5 C 16,1 C 15,0 C 98 % 15 lf 1019,7 hPa 0,0 l/m 0 min 0 min 210 W/m 8,4 km/h (2 Bft) 100,00 %
10.08.2017 11:32 15,5 C 15,6 C 15,0 C 98 % 15 lf 1019,7 hPa 0,0 l/m 0 min 0 min 205 W/m 10,5 km/h (2 Bft) 100,00 %
10.08.2017 11:34 15,5 C 15,6 C 15,0 C 98 % 15 lf 1019,8 hPa 0,0 l/m 0 min 0 min 207 W/m 8,4 km/h (2 Bft) 97,87 %
10.08.2017 11:36 15,5 C 15,6 C 15,0 C 98 % 15 lf 1019,8 hPa 0,0 l/m 0 min 0 min 208 W/m 8,4 km/h (2 Bft) 100,00 %
10.08.2017 11:38 15,5 C 15,6 C 15,0 C 98 % 15 lf 1019,8 hPa 0,0 l/m 0 min 0 min 207 W/m 6,3 km/h (2 Bft) 97,87 %
10.08.2017 11:40 15,5 C 16,1 C 15,0 C 98 % 15 lf 1019,8 hPa 0,0 l/m 0 min 0 min 207 W/m 6,3 km/h (2 Bft) 100,00 %
10.08.2017 11:42 15,5 C 16,1 C 15,0 C 98 % 15 lf 1019,8 hPa 0,0 l/m 0 min 0 min 203 W/m 6,3 km/h (2 Bft) 100,00 %
10.08.2017 11:44 15,5 C 16,1 C 15,0 C 98 % 15 lf 1019,8 hPa 0,0 l/m 0 min 0 min 202 W/m 8,4 km/h (2 Bft) 100,00 %
10.08.2017 11:46 15,5 C 16,1 C 15,0 C 98 % 15 lf 1019,8 hPa 0,0 l/m 0 min 0 min 198 W/m 6,3 km/h (2 Bft) 100,00 %
10.08.2017 11:48 15,6 C 16,1 C 15,0 C 98 % 14 lf 1019,8 hPa 0,0 l/m 0 min 0 min 200 W/m 8,4 km/h (2 Bft) 100,00 %
10.08.2017 11:50 15,6 C 16,1 C 15,0 C 98 % 14 lf 1019,8 hPa 0,0 l/m 0 min 0 min 199 W/m 6,3 km/h (2 Bft) 93,62 %
10.08.2017 11:52 15,6 C 16,1 C 15,0 C 98 % 14 lf 1019,9 hPa 0,0 l/m 0 min 0 min 205 W/m 6,3 km/h (2 Bft) 95,74 %
10.08.2017 11:54 15,6 C 16,1 C 15,0 C 98 % 13 lf 1019,8 hPa 0,0 l/m 0 min 0 min 215 W/m 6,3 km/h (2 Bft) 95,65 %
10.08.2017 11:56 15,6 C 16,1 C 15,0 C 98 % 12 lf 1019,8 hPa 0,0 l/m 0 min 0 min 221 W/m 10,5 km/h (2 Bft) 97,87 %
10.08.2017 11:58 15,6 C 16,1 C 15,0 C 98 % 12 lf 1019,9 hPa 0,0 l/m 0 min 0 min 230 W/m 6,3 km/h (2 Bft) 95,74 %
10.08.2017 12:00 15,6 C 16,1 C 15,0 C 98 % 9 lf 1019,8 hPa 0,0 l/m 0 min 0 min 237 W/m 8,4 km/h (2 Bft) 97,87 %
10.08.2017 12:02 15,6 C 16,1 C 15,0 C 98 % 8 lf 1019,8 hPa 0,0 l/m 0 min 0 min 242 W/m 6,3 km/h (2 Bft) 95,74 %
10.08.2017 12:04 15,6 C 16,7 C 15,6 C 98 % 5 lf 1019,8 hPa 0,0 l/m 0 min 0 min 244 W/m 6,3 km/h (2 Bft) 97,83 %
10.08.2017 12:08 15,6 C 16,7 C 15,6 C 98 % 3 lf 1019,8 hPa 0,0 l/m 0 min 0 min 235 W/m 6,3 km/h (2 Bft) 96,08 %
10.08.2017 12:10 15,6 C 16,7 C 15,6 C 98 % 2 lf 1019,8 hPa 0,0 l/m 0 min 0 min 227 W/m 2,1 km/h (1 Bft) 97,87 %
10.08.2017 12:12 15,6 C 16,7 C 15,6 C 98 % 2 lf 1019,8 hPa 0,0 l/m 0 min 0 min 225 W/m 4,2 km/h (1 Bft) 95,74 %
10.08.2017 12:14 15,6 C 16,7 C 15,6 C 98 % 3 lf 1019,7 hPa 0,0 l/m 0 min 0 min 229 W/m 6,3 km/h (2 Bft) 97,87 %
10.08.2017 12:16 15,6 C 16,7 C 15,6 C 98 % 3 lf 1019,7 hPa 0,0 l/m 0 min 0 min 230 W/m 6,3 km/h (2 Bft) 95,74 %
10.08.2017 12:18 15,6 C 16,7 C 15,6 C 98 % 3 lf 1019,6 hPa 0,0 l/m 0 min 0 min 240 W/m 4,2 km/h (1 Bft) 95,74 %
10.08.2017 12:20 15,7 C 16,7 C 15,6 C 98 % 3 lf 1019,6 hPa 0,0 l/m 0 min 0 min 246 W/m 6,3 km/h (2 Bft) 97,83 %
10.08.2017 12:22 15,7 C 17,2 C 15,6 C 98 % 3 lf 1019,5 hPa 0,0 l/m 0 min 2 min 251 W/m 6,3 km/h (2 Bft) 97,87 %
10.08.2017 12:24 15,7 C 17,8 C 16,1 C 98 % 2 lf 1019,6 hPa 0,0 l/m 0 min 0 min 257 W/m 6,3 km/h (2 Bft) 97,87 %
10.08.2017 12:26 15,7 C 17,2 C 16,1 C 98 % 1 lf 1019,6 hPa 0,0 l/m 0 min 0 min 264 W/m 6,3 km/h (2 Bft) 95,74 %
10.08.2017 12:28 15,7 C 17,2 C 16,1 C 98 % 1 lf 1019,7 hPa 0,0 l/m 0 min 0 min 256 W/m 6,3 km/h (2 Bft) 95,74 %
10.08.2017 12:30 15,8 C 17,2 C 15,6 C 98 % 1 lf 1019,8 hPa 0,0 l/m 0 min 0 min 251 W/m 6,3 km/h (2 Bft) 93,62 %
10.08.2017 12:32 15,8 C 17,2 C 16,1 C 98 % 1 lf 1019,7 hPa 0,0 l/m 0 min 0 min 253 W/m 4,2 km/h (1 Bft) 97,83 %
10.08.2017 12:34 15,8 C 17,8 C 15,6 C 97 % 1 lf 1019,7 hPa 0,0 l/m 0 min 2 min 248 W/m 2,1 km/h (1 Bft) 97,87 %
10.08.2017 12:36 15,9 C 17,2 C 15,6 C 97 % 0 lf 1019,7 hPa 0,0 l/m 0 min 0 min 248 W/m 6,3 km/h (2 Bft) 94,74 %
10.08.2017 12:38 15,9 C 17,2 C 15,6 C 97 % 0 lf 1019,7 hPa 0,0 l/m 0 min 0 min 247 W/m 6,3 km/h (2 Bft) 95,74 %
10.08.2017 12:40 15,8 C 17,2 C 15,6 C 97 % 0 lf 1019,8 hPa 0,0 l/m 0 min 0 min 242 W/m 2,1 km/h (1 Bft) 95,74 %
10.08.2017 12:42 15,8 C 17,2 C 15,6 C 97 % 0 lf 1019,8 hPa 0,0 l/m 0 min 0 min 234 W/m 4,2 km/h (1 Bft) 97,87 %
10.08.2017 12:44 15,8 C 17,2 C 15,6 C 98 % 0 lf 1019,8 hPa 0,0 l/m 0 min 0 min 233 W/m 4,2 km/h (1 Bft) 95,74 %
10.08.2017 12:46 15,9 C 16,7 C 15,6 C 98 % 0 lf 1019,8 hPa 0,0 l/m 0 min 0 min 233 W/m 2,1 km/h (1 Bft) 95,65 %
10.08.2017 12:48 15,9 C 17,2 C 16,1 C 97 % 0 lf 1019,8 hPa 0,0 l/m 0 min 0 min 234 W/m 4,2 km/h (1 Bft) 95,74 %
10.08.2017 12:50 16,0 C 16,7 C 16,1 C 97 % 0 lf 1019,8 hPa 0,0 l/m 0 min 0 min 235 W/m 4,2 km/h (1 Bft) 97,87 %
10.08.2017 12:52 16,1 C 17,2 C 16,1 C 97 % 0 lf 1019,8 hPa 0,0 l/m 0 min 0 min 232 W/m 2,1 km/h (1 Bft) 95,74 %
10.08.2017 12:54 16,1 C 17,2 C 16,1 C 97 % 0 lf 1019,8 hPa 0,0 l/m 0 min 0 min 229 W/m 4,2 km/h (1 Bft) 93,62 %
10.08.2017 12:56 16,2 C 17,2 C 15,6 C 97 % 0 lf 1019,8 hPa 0,0 l/m 0 min 0 min 228 W/m 4,2 km/h (1 Bft) 95,74 %
10.08.2017 12:58 16,2 C 17,2 C 15,6 C 97 % 0 lf 1019,9 hPa 0,0 l/m 0 min 2 min 227 W/m 2,1 km/h (1 Bft) 93,48 %
10.08.2017 13:00 16,2 C 17,2 C 15,6 C 97 % 1 lf 1019,9 hPa 0,0 l/m 0 min 2 min 185 W/m 4,2 km/h (1 Bft) 93,62 %
10.08.2017 13:02 16,3 C 16,7 C 15,6 C 97 % 1 lf 1019,9 hPa 0,0 l/m 0 min 0 min 195 W/m 2,1 km/h (1 Bft) 91,49 %
10.08.2017 13:04 16,3 C 17,2 C 15,6 C 97 % 1 lf 1019,8 hPa 0,0 l/m 0 min 0 min 215 W/m 4,2 km/h (1 Bft) 95,74 %
10.08.2017 13:06 16,3 C 16,7 C 15,6 C 97 % 0 lf 1019,9 hPa 0,0 l/m 0 min 0 min 226 W/m 4,2 km/h (1 Bft) 95,74 %
10.08.2017 13:08 16,3 C 17,2 C 15,6 C 97 % 1 lf 1019,9 hPa 0,0 l/m 0 min 2 min 225 W/m 2,1 km/h (1 Bft) 95,74 %
10.08.2017 13:10 16,4 C 17,2 C 15,6 C 97 % 0 lf 1019,9 hPa 0,0 l/m 0 min 0 min 224 W/m 0,0 km/h (0 Bft) 95,65 %
10.08.2017 13:12 16,4 C 16,7 C 15,6 C 97 % 0 lf 1019,9 hPa 0,0 l/m 0 min 0 min 221 W/m 0,0 km/h (0 Bft) 93,62 %
10.08.2017 13:14 16,4 C 16,7 C 15,6 C 97 % 1 lf 1019,9 hPa 0,0 l/m 0 min 0 min 222 W/m 0,0 km/h (0 Bft) 97,87 %
10.08.2017 13:16 16,4 C 16,7 C 15,6 C 97 % 1 lf 1019,9 hPa 0,0 l/m 0 min 0 min 231 W/m 0,0 km/h (0 Bft) 95,74 %
10.08.2017 13:18 16,4 C 16,7 C 16,1 C 97 % 2 lf 1019,9 hPa 0,0 l/m 0 min 2 min 235 W/m 0,0 km/h (0 Bft) 100,00 %
10.08.2017 13:20 16,4 C 16,7 C 16,1 C 97 % 1 lf 1019,9 hPa 0,0 l/m 0 min 2 min 240 W/m 0,0 km/h (0 Bft) 95,74 %
10.08.2017 13:22 16,4 C 17,2 C 16,1 C 97 % 0 lf 1019,9 hPa 0,0 l/m 0 min 0 min 240 W/m 0,0 km/h (0 Bft) 97,83 %
10.08.2017 13:24 16,5 C 17,2 C 16,1 C 97 % 0 lf 1019,9 hPa 0,0 l/m 0 min 2 min 244 W/m 0,0 km/h (0 Bft) 97,87 %
10.08.2017 13:26 16,5 C 16,7 C 16,1 C 97 % 0 lf 1019,9 hPa 0,0 l/m 0 min 2 min 249 W/m 0,0 km/h (0 Bft) 97,87 %
10.08.2017 13:28 16,4 C 16,7 C 15,6 C 97 % 0 lf 1019,9 hPa 0,0 l/m 0 min 2 min 252 W/m 0,0 km/h (0 Bft) 97,87 %
10.08.2017 13:30 16,4 C 16,7 C 15,6 C 96 % 1 lf 1019,9 hPa 0,0 l/m 0 min 2 min 247 W/m 0,0 km/h (0 Bft) 95,74 %
10.08.2017 13:32 16,4 C 17,2 C 15,6 C 96 % 3 lf 1019,9 hPa 0,0 l/m 0 min 2 min 243 W/m 0,0 km/h (0 Bft) 97,83 %
10.08.2017 13:34 16,4 C 17,2 C 15,6 C 96 % 2 lf 1019,9 hPa 0,0 l/m 0 min 2 min 243 W/m 0,0 km/h (0 Bft) 97,87 %
10.08.2017 13:36 16,4 C 17,8 C 15,6 C 96 % 2 lf 1019,9 hPa 0,0 l/m 0 min 2 min 221 W/m 0,0 km/h (0 Bft) 95,83 %
10.08.2017 13:38 16,5 C 17,2 C 16,1 C 96 % 2 lf 1019,8 hPa 0,0 l/m 0 min 2 min 149 W/m 0,0 km/h (0 Bft) 93,48 %
10.08.2017 13:40 16,5 C 16,7 C 15,6 C 96 % 1 lf 1019,8 hPa 0,0 l/m 0 min 2 min 149 W/m 4,2 km/h (1 Bft) 91,49 %
10.08.2017 13:42 16,6 C 17,2 C 16,1 C 96 % 2 lf 1019,8 hPa 0,0 l/m 0 min 2 min 151 W/m 4,2 km/h (1 Bft) 95,74 %
10.08.2017 13:44 16,6 C 17,2 C 16,1 C 96 % 3 lf 1019,8 hPa 0,0 l/m 0 min 2 min 152 W/m 2,1 km/h (1 Bft) 95,74 %
10.08.2017 13:46 16,6 C 17,2 C 16,1 C 96 % 4 lf 1019,8 hPa 0,0 l/m 0 min 2 min 156 W/m 0,0 km/h (0 Bft) 97,87 %
10.08.2017 13:48 16,6 C 17,8 C 16,1 C 96 % 4 lf 1019,8 hPa 0,0 l/m 0 min 2 min 155 W/m 2,1 km/h (1 Bft) 95,74 %
10.08.2017 13:50 16,7 C 17,8 C 16,1 C 96 % 4 lf 1019,9 hPa 0,0 l/m 0 min 2 min 155 W/m 0,0 km/h (0 Bft) 97,83 %
10.08.2017 13:52 16,7 C 17,2 C 16,1 C 96 % 9 lf 1019,8 hPa 0,0 l/m 0 min 2 min 151 W/m 0,0 km/h (0 Bft) 97,87 %
10.08.2017 13:54 16,7 C 17,8 C 16,1 C 96 % 12 lf 1019,8 hPa 0,0 l/m 0 min 2 min 149 W/m 2,1 km/h (1 Bft) 93,62 %
10.08.2017 13:56 16,8 C 17,8 C 16,1 C 96 % 14 lf 1019,8 hPa 0,0 l/m 0 min 2 min 149 W/m 2,1 km/h (1 Bft) 95,74 %
10.08.2017 13:58 16,8 C 17,8 C 15,6 C 96 % 15 lf 1019,8 hPa 0,0 l/m 0 min 2 min 148 W/m 2,1 km/h (1 Bft) 97,87 %
10.08.2017 14:00 16,8 C 17,8 C 16,1 C 96 % 15 lf 1019,8 hPa 0,0 l/m 0 min 2 min 152 W/m 6,3 km/h (2 Bft) 97,87 %
10.08.2017 14:02 16,8 C 17,8 C 15,6 C 96 % 15 lf 1019,8 hPa 0,0 l/m 0 min 2 min 153 W/m 4,2 km/h (1 Bft) 97,83 %
10.08.2017 14:04 16,8 C 17,8 C 15,6 C 95 % 15 lf 1019,8 hPa 0,0 l/m 0 min 2 min 151 W/m 4,2 km/h (1 Bft) 97,87 %
10.08.2017 14:06 16,8 C 17,2 C 15,6 C 95 % 15 lf 1019,8 hPa 0,0 l/m 0 min 2 min 152 W/m 4,2 km/h (1 Bft) 95,74 %
10.08.2017 14:08 16,8 C 17,2 C 15,0 C 95 % 15 lf 1019,7 hPa 0,0 l/m 0 min 2 min 152 W/m 2,1 km/h (1 Bft) 97,87 %
10.08.2017 14:10 16,8 C 17,8 C 15,6 C 95 % 15 lf 1019,7 hPa 0,0 l/m 0 min 2 min 156 W/m 2,1 km/h (1 Bft) 97,87 %
10.08.2017 14:12 16,8 C 17,2 C 16,1 C 95 % 15 lf 1019,7 hPa 0,2 l/m 0 min 2 min 156 W/m 2,1 km/h (1 Bft) 95,74 %
10.08.2017 14:14 16,8 C 17,2 C 16,1 C 95 % 15 lf 1019,7 hPa 0,0 l/m 0 min 2 min 159 W/m 4,2 km/h (1 Bft) 97,87 %
10.08.2017 14:16 16,8 C 17,2 C 16,1 C 95 % 15 lf 1019,7 hPa 0,0 l/m 0 min 2 min 163 W/m 4,2 km/h (1 Bft) 97,83 %
10.08.2017 14:18 16,8 C 17,2 C 15,0 C 94 % 15 lf 1019,8 hPa 0,0 l/m 0 min 2 min 161 W/m 2,1 km/h (1 Bft) 97,87 %
10.08.2017 14:20 16,8 C 17,2 C 15,6 C 94 % 15 lf 1019,9 hPa 0,0 l/m 0 min 2 min 155 W/m 2,1 km/h (1 Bft) 95,74 %
10.08.2017 14:22 16,8 C 17,2 C 15,6 C 94 % 15 lf 1019,9 hPa 0,0 l/m 0 min 2 min 155 W/m 2,1 km/h (1 Bft) 97,87 %
10.08.2017 14:24 16,9 C 17,2 C 16,1 C 94 % 15 lf 1019,9 hPa 0,0 l/m 0 min 2 min 156 W/m 2,1 km/h (1 Bft) 97,87 %
10.08.2017 14:26 16,9 C 17,2 C 15,6 C 94 % 15 lf 1019,9 hPa 0,0 l/m 0 min 2 min 153 W/m 2,1 km/h (1 Bft) 95,65 %
10.08.2017 14:28 16,9 C 17,2 C 15,6 C 94 % 15 lf 1019,9 hPa 0,0 l/m 0 min 2 min 152 W/m 2,1 km/h (1 Bft) 97,87 %
10.08.2017 14:30 16,9 C 16,7 C 15,6 C 94 % 15 lf 1019,8 hPa 0,0 l/m 0 min 2 min 152 W/m 4,2 km/h (1 Bft) 95,74 %
10.08.2017 14:32 16,9 C 16,7 C 15,6 C 94 % 15 lf 1019,8 hPa 0,0 l/m 0 min 2 min 152 W/m 0,0 km/h (0 Bft) 95,74 %
10.08.2017 14:34 16,9 C 16,7 C 15,6 C 94 % 15 lf 1019,8 hPa 0,0 l/m 0 min 2 min 156 W/m 4,2 km/h (1 Bft) 97,87 %
10.08.2017 14:36 16,9 C 17,2 C 15,6 C 94 % 15 lf 1019,8 hPa 0,0 l/m 0 min 2 min 160 W/m 4,2 km/h (1 Bft) 95,74 %
10.08.2017 14:38 16,9 C 17,2 C 15,6 C 94 % 15 lf 1019,8 hPa 0,2 l/m 0 min 2 min 162 W/m 4,2 km/h (1 Bft) 93,48 %
10.08.2017 14:40 16,9 C 17,2 C 15,6 C 94 % 15 lf 1019,8 hPa 0,0 l/m 0 min 2 min 164 W/m 8,4 km/h (2 Bft) 93,62 %
10.08.2017 14:42 16,9 C 16,7 C 15,0 C 93 % 15 lf 1019,9 hPa 0,0 l/m 0 min 2 min 156 W/m 6,3 km/h (2 Bft) 95,74 %
10.08.2017 14:44 16,9 C 16,7 C 15,0 C 93 % 15 lf 1019,9 hPa 0,0 l/m 0 min 2 min 151 W/m 6,3 km/h (2 Bft) 95,74 %
10.08.2017 14:46 16,9 C 16,7 C 15,0 C 93 % 15 lf 1019,9 hPa 0,0 l/m 0 min 2 min 154 W/m 6,3 km/h (2 Bft) 95,74 %
10.08.2017 14:48 16,8 C 17,2 C 15,6 C 93 % 15 lf 1019,8 hPa 0,0 l/m 0 min 2 min 157 W/m 6,3 km/h (2 Bft) 93,62 %
10.08.2017 14:50 16,8 C 17,2 C 15,6 C 93 % 15 lf 1019,8 hPa 0,0 l/m 0 min 2 min 156 W/m 6,3 km/h (2 Bft) 95,65 %
10.08.2017 14:52 16,8 C 17,2 C 15,6 C 93 % 15 lf 1019,9 hPa 0,0 l/m 0 min 2 min 154 W/m 6,3 km/h (2 Bft) 95,74 %
10.08.2017 14:54 16,8 C 17,2 C 15,6 C 93 % 15 lf 1019,9 hPa 0,0 l/m 0 min 2 min 151 W/m 4,2 km/h (1 Bft) 95,74 %
10.08.2017 14:56 16,8 C 17,2 C 15,6 C 93 % 15 lf 1019,9 hPa 0,0 l/m 0 min 2 min 151 W/m 2,1 km/h (1 Bft) 91,49 %
10.08.2017 14:58 16,9 C 17,2 C 15,0 C 93 % 15 lf 1019,9 hPa 0,0 l/m 0 min 2 min 148 W/m 4,2 km/h (1 Bft) 97,87 %
10.08.2017 15:00 16,9 C 17,2 C 15,0 C 93 % 15 lf 1020,0 hPa 0,0 l/m 0 min 0 min 142 W/m 0,0 km/h (0 Bft) 95,74 %
10.08.2017 15:02 16,9 C 17,2 C 15,6 C 93 % 15 lf 1020,0 hPa 0,0 l/m 0 min 2 min 141 W/m 0,0 km/h (0 Bft) 95,65 %
10.08.2017 15:04 16,9 C 17,2 C 15,0 C 93 % 15 lf 1020,0 hPa 0,0 l/m 0 min 2 min 141 W/m 0,0 km/h (0 Bft) 91,49 %
10.08.2017 15:06 16,9 C 17,8 C 15,0 C 93 % 15 lf 1019,9 hPa 0,0 l/m 0 min 2 min 146 W/m 0,0 km/h (0 Bft) 93,62 %
10.08.2017 15:08 16,9 C 17,2 C 15,6 C 93 % 15 lf 1019,9 hPa 0,0 l/m 0 min 2 min 146 W/m 2,1 km/h (1 Bft) 97,87 %
10.08.2017 15:10 16,9 C 17,2 C 15,6 C 92 % 15 lf 1019,9 hPa 0,0 l/m 0 min 2 min 148 W/m 4,2 km/h (1 Bft) 93,62 %
10.08.2017 15:12 16,9 C 17,2 C 15,6 C 92 % 15 lf 1019,9 hPa 0,0 l/m 0 min 2 min 152 W/m 2,1 km/h (1 Bft) 93,48 %
10.08.2017 15:14 16,9 C 17,8 C 15,6 C 92 % 15 lf 1019,9 hPa 0,0 l/m 0 min 2 min 157 W/m 2,1 km/h (1 Bft) 95,74 %
10.08.2017 15:16 17,0 C 17,8 C 16,1 C 93 % 15 lf 1019,8 hPa 0,0 l/m 0 min 2 min 157 W/m 2,1 km/h (1 Bft) 93,62 %
10.08.2017 15:18 17,0 C 17,8 C 16,1 C 93 % 15 lf 1019,9 hPa 0,0 l/m 0 min 2 min 156 W/m 2,1 km/h (1 Bft) 95,74 %
10.08.2017 15:20 17,1 C 17,8 C 16,1 C 93 % 15 lf 1019,9 hPa 0,0 l/m 0 min 2 min 158 W/m 4,2 km/h (1 Bft) 97,87 %
10.08.2017 15:22 17,1 C 17,8 C 16,1 C 93 % 15 lf 1019,9 hPa 0,2 l/m 0 min 2 min 159 W/m 4,2 km/h (1 Bft) 97,87 %
10.08.2017 15:24 17,2 C 17,8 C 16,1 C 93 % 15 lf 1019,9 hPa 0,0 l/m 0 min 2 min 156 W/m 4,2 km/h (1 Bft) 97,83 %
10.08.2017 15:26 17,2 C 17,8 C 16,1 C 93 % 15 lf 1019,9 hPa 0,0 l/m 0 min 2 min 155 W/m 6,3 km/h (2 Bft) 93,62 %
10.08.2017 15:28 17,2 C 17,8 C 16,1 C 93 % 15 lf 1019,8 hPa 0,0 l/m 0 min 2 min 158 W/m 4,2 km/h (1 Bft) 95,74 %
10.08.2017 15:30 17,3 C 17,8 C 16,1 C 93 % 15 lf 1019,8 hPa 0,0 l/m 0 min 2 min 160 W/m 6,3 km/h (2 Bft) 97,87 %
10.08.2017 15:32 17,3 C 17,8 C 16,1 C 93 % 15 lf 1019,8 hPa 0,0 l/m 0 min 2 min 159 W/m 6,3 km/h (2 Bft) 100,00 %
10.08.2017 15:34 17,3 C 17,8 C 16,1 C 93 % 15 lf 1019,8 hPa 0,0 l/m 0 min 2 min 155 W/m 6,3 km/h (2 Bft) 95,74 %
10.08.2017 15:36 17,3 C 17,8 C 16,1 C 93 % 15 lf 1019,8 hPa 0,0 l/m 0 min 2 min 149 W/m 6,3 km/h (2 Bft) 100,00 %
10.08.2017 15:38 17,3 C 17,8 C 16,1 C 93 % 15 lf 1019,8 hPa 0,0 l/m 0 min 2 min 151 W/m 6,3 km/h (2 Bft) 100,00 %
10.08.2017 15:40 17,3 C 17,8 C 16,1 C 93 % 15 lf 1019,7 hPa 0,0 l/m 0 min 2 min 155 W/m 8,4 km/h (2 Bft) 100,00 %
10.08.2017 15:42 17,3 C 17,8 C 15,6 C 93 % 15 lf 1019,7 hPa 0,0 l/m 0 min 2 min 156 W/m 6,3 km/h (2 Bft) 97,87 %
10.08.2017 15:44 17,3 C 18,3 C 16,1 C 93 % 15 lf 1019,7 hPa 0,0 l/m 0 min 2 min 154 W/m 6,3 km/h (2 Bft) 97,87 %
10.08.2017 15:46 17,3 C 17,8 C 16,1 C 93 % 15 lf 1019,8 hPa 0,0 l/m 0 min 2 min 153 W/m 8,4 km/h (2 Bft) 100,00 %
10.08.2017 15:48 17,2 C 17,8 C 15,6 C 93 % 15 lf 1019,7 hPa 0,0 l/m 0 min 2 min 152 W/m 6,3 km/h (2 Bft) 95,74 %
10.08.2017 15:50 17,2 C 17,8 C 15,6 C 92 % 15 lf 1019,7 hPa 0,0 l/m 0 min 2 min 155 W/m 8,4 km/h (2 Bft) 97,83 %
10.08.2017 15:52 17,2 C 18,3 C 15,6 C 92 % 15 lf 1019,7 hPa 0,0 l/m 0 min 2 min 160 W/m 6,3 km/h (2 Bft) 97,22 %
10.08.2017 15:54 17,2 C 17,8 C 16,1 C 92 % 15 lf 1019,6 hPa 0,0 l/m 0 min 2 min 159 W/m 6,3 km/h (2 Bft) 94,83 %
10.08.2017 15:56 17,1 C 17,8 C 15,6 C 92 % 15 lf 1019,6 hPa 0,0 l/m 0 min 2 min 155 W/m 8,4 km/h (2 Bft) 97,87 %
10.08.2017 15:58 17,1 C 17,8 C 15,6 C 92 % 15 lf 1019,7 hPa 0,0 l/m 0 min 2 min 147 W/m 8,4 km/h (2 Bft) 97,87 %
10.08.2017 16:00 17,1 C 17,8 C 15,6 C 92 % 15 lf 1019,7 hPa 0,0 l/m 0 min 2 min 145 W/m 6,3 km/h (2 Bft) 95,74 %
10.08.2017 16:02 17,1 C 17,8 C 15,6 C 92 % 15 lf 1019,7 hPa 0,0 l/m 0 min 2 min 143 W/m 8,4 km/h (2 Bft) 97,83 %
10.08.2017 16:04 17,1 C 17,8 C 15,6 C 92 % 15 lf 1019,7 hPa 0,0 l/m 0 min 2 min 140 W/m 8,4 km/h (2 Bft) 95,74 %
10.08.2017 16:06 17,1 C 17,2 C 15,6 C 92 % 15 lf 1019,7 hPa 0,0 l/m 0 min 2 min 139 W/m 8,4 km/h (2 Bft) 97,87 %
10.08.2017 16:08 17,1 C 17,2 C 15,6 C 92 % 15 lf 1019,7 hPa 0,0 l/m 0 min 0 min 135 W/m 4,2 km/h (1 Bft) 95,74 %
10.08.2017 16:10 17,1 C 17,2 C 15,6 C 92 % 15 lf 1019,6 hPa 0,0 l/m 0 min 2 min 133 W/m 4,2 km/h (1 Bft) 97,87 %
10.08.2017 16:12 17,1 C 17,2 C 15,6 C 92 % 15 lf 1019,6 hPa 0,0 l/m 0 min 2 min 133 W/m 6,3 km/h (2 Bft) 97,87 %
10.08.2017 16:14 17,1 C 17,2 C 15,6 C 92 % 15 lf 1019,6 hPa 0,0 l/m 0 min 2 min 136 W/m 6,3 km/h (2 Bft) 97,14 %
10.08.2017 16:16 17,1 C 17,2 C 15,6 C 92 % 15 lf 1019,7 hPa 0,0 l/m 0 min 2 min 138 W/m 4,2 km/h (1 Bft) 96,55 %
10.08.2017 16:18 17,1 C 17,2 C 15,6 C 92 % 15 lf 1019,7 hPa 0,0 l/m 0 min 2 min 141 W/m 6,3 km/h (2 Bft) 95,74 %
10.08.2017 16:20 17,1 C 16,7 C 15,6 C 92 % 15 lf 1019,6 hPa 0,0 l/m 0 min 2 min 142 W/m 6,3 km/h (2 Bft) 95,74 %
10.08.2017 16:22 17,1 C 16,7 C 15,0 C 92 % 15 lf 1019,7 hPa 0,0 l/m 0 min 2 min 143 W/m 4,2 km/h (1 Bft) 93,62 %
10.08.2017 16:24 17,1 C 16,7 C 15,6 C 92 % 15 lf 1019,7 hPa 0,0 l/m 0 min 2 min 142 W/m 4,2 km/h (1 Bft) 97,87 %
10.08.2017 16:26 17,1 C 16,7 C 15,6 C 92 % 15 lf 1019,6 hPa 0,0 l/m 0 min 2 min 143 W/m 4,2 km/h (1 Bft) 97,83 %
10.08.2017 16:28 17,1 C 16,7 C 15,6 C 92 % 15 lf 1019,6 hPa 0,2 l/m 0 min 2 min 146 W/m 2,1 km/h (1 Bft) 97,87 %
10.08.2017 16:30 17,1 C 16,7 C 15,6 C 93 % 15 lf 1019,6 hPa 0,0 l/m 0 min 2 min 152 W/m 4,2 km/h (1 Bft) 97,87 %
10.08.2017 16:32 17,1 C 16,7 C 15,6 C 92 % 15 lf 1019,6 hPa 0,0 l/m 0 min 2 min 152 W/m 4,2 km/h (1 Bft) 95,74 %
10.08.2017 16:34 17,1 C 17,2 C 15,6 C 92 % 15 lf 1019,6 hPa 0,0 l/m 0 min 2 min 160 W/m 6,3 km/h (2 Bft) 95,74 %
10.08.2017 16:36 17,1 C 17,2 C 15,6 C 93 % 15 lf 1019,6 hPa 0,0 l/m 0 min 2 min 157 W/m 4,2 km/h (1 Bft) 92,11 %
10.08.2017 16:38 17,1 C 17,2 C 15,6 C 93 % 15 lf 1019,5 hPa 0,0 l/m 0 min 2 min 157 W/m 6,3 km/h (2 Bft) 95,74 %
10.08.2017 16:40 17,1 C 17,2 C 15,6 C 93 % 15 lf 1019,5 hPa 0,0 l/m 0 min 2 min 157 W/m 6,3 km/h (2 Bft) 97,83 %
10.08.2017 16:42 17,1 C 17,2 C 16,1 C 93 % 15 lf 1019,5 hPa 0,0 l/m 0 min 2 min 163 W/m 6,3 km/h (2 Bft) 95,74 %
10.08.2017 16:44 17,2 C 17,2 C 16,1 C 93 % 15 lf 1019,5 hPa 0,0 l/m 0 min 2 min 165 W/m 6,3 km/h (2 Bft) 97,87 %
10.08.2017 16:46 17,2 C 17,2 C 16,1 C 93 % 15 lf 1019,5 hPa 0,0 l/m 0 min 2 min 166 W/m 4,2 km/h (1 Bft) 97,87 %
10.08.2017 16:48 17,2 C 17,2 C 16,1 C 93 % 15 lf 1019,5 hPa 0,0 l/m 0 min 2 min 163 W/m 4,2 km/h (1 Bft) 97,87 %
10.08.2017 16:50 17,2 C 17,2 C 16,1 C 93 % 15 lf 1019,5 hPa 0,0 l/m 0 min 2 min 158 W/m 6,3 km/h (2 Bft) 97,87 %
10.08.2017 16:52 17,2 C 17,2 C 16,1 C 93 % 15 lf 1019,5 hPa 0,0 l/m 0 min 2 min 151 W/m 2,1 km/h (1 Bft) 97,83 %
10.08.2017 16:54 17,2 C 17,2 C 16,1 C 93 % 15 lf 1019,5 hPa 0,0 l/m 0 min 2 min 148 W/m 6,3 km/h (2 Bft) 95,74 %
10.08.2017 16:56 17,2 C 17,2 C 16,1 C 93 % 15 lf 1019,4 hPa 0,0 l/m 0 min 2 min 145 W/m 0,0 km/h (0 Bft) 95,74 %
10.08.2017 16:58 17,2 C 17,2 C 15,6 C 93 % 15 lf 1019,5 hPa 0,0 l/m 0 min 2 min 145 W/m 4,2 km/h (1 Bft) 97,87 %
10.08.2017 17:00 17,2 C 17,2 C 15,6 C 93 % 15 lf 1019,5 hPa 0,0 l/m 0 min 2 min 141 W/m 4,2 km/h (1 Bft) 97,87 %
10.08.2017 17:02 17,2 C 17,2 C 16,1 C 93 % 15 lf 1019,5 hPa 0,0 l/m 0 min 2 min 142 W/m 4,2 km/h (1 Bft) 97,87 %
10.08.2017 17:04 17,2 C 17,2 C 15,6 C 93 % 15 lf 1019,5 hPa 0,0 l/m 0 min 2 min 140 W/m 0,0 km/h (0 Bft) 100,00 %
10.08.2017 17:06 17,3 C 17,2 C 15,6 C 93 % 15 lf 1019,5 hPa 0,0 l/m 0 min 2 min 141 W/m 2,1 km/h (1 Bft) 97,92 %
10.08.2017 17:08 17,3 C 17,2 C 15,6 C 93 % 15 lf 1019,5 hPa 0,0 l/m 0 min 2 min 142 W/m 4,2 km/h (1 Bft) 97,87 %
10.08.2017 17:10 17,3 C 17,2 C 15,6 C 93 % 15 lf 1019,5 hPa 0,0 l/m 0 min 2 min 140 W/m 4,2 km/h (1 Bft) 97,83 %
10.08.2017 17:12 17,3 C 17,2 C 15,6 C 93 % 15 lf 1019,5 hPa 0,0 l/m 0 min 2 min 142 W/m 2,1 km/h (1 Bft) 97,87 %
10.08.2017 17:14 17,3 C 17,2 C 15,6 C 93 % 15 lf 1019,5 hPa 0,0 l/m 0 min 2 min 142 W/m 4,2 km/h (1 Bft) 95,74 %
10.08.2017 17:16 17,3 C 17,2 C 15,6 C 93 % 15 lf 1019,4 hPa 0,0 l/m 0 min 2 min 144 W/m 2,1 km/h (1 Bft) 97,87 %
10.08.2017 17:18 17,3 C 17,2 C 15,6 C 93 % 15 lf 1019,5 hPa 0,2 l/m 0 min 2 min 141 W/m 2,1 km/h (1 Bft) 95,74 %
10.08.2017 17:20 17,3 C 17,2 C 15,6 C 93 % 15 lf 1019,4 hPa 0,0 l/m 0 min 2 min 140 W/m 6,3 km/h (2 Bft) 97,87 %
10.08.2017 17:22 17,3 C 17,2 C 15,6 C 93 % 15 lf 1019,4 hPa 0,0 l/m 0 min 2 min 140 W/m 6,3 km/h (2 Bft) 97,83 %
10.08.2017 17:24 17,3 C 16,7 C 15,6 C 93 % 15 lf 1019,4 hPa 0,0 l/m 0 min 2 min 144 W/m 2,1 km/h (1 Bft) 97,87 %
10.08.2017 17:26 17,3 C 16,7 C 15,6 C 93 % 15 lf 1019,4 hPa 0,0 l/m 0 min 2 min 143 W/m 4,2 km/h (1 Bft) 97,87 %
10.08.2017 17:28 17,3 C 16,7 C 15,6 C 93 % 15 lf 1019,4 hPa 0,0 l/m 0 min 2 min 142 W/m 4,2 km/h (1 Bft) 95,74 %
10.08.2017 17:30 17,3 C 16,7 C 15,6 C 93 % 15 lf 1019,4 hPa 0,0 l/m 0 min 2 min 141 W/m 2,1 km/h (1 Bft) 95,74 %
10.08.2017 17:32 17,3 C 16,7 C 15,6 C 93 % 15 lf 1019,4 hPa 0,0 l/m 0 min 2 min 142 W/m 0,0 km/h (0 Bft) 97,87 %
10.08.2017 17:34 17,3 C 16,1 C 15,6 C 93 % 15 lf 1019,4 hPa 0,0 l/m 0 min 2 min 138 W/m 4,2 km/h (1 Bft) 95,65 %
10.08.2017 17:36 17,2 C 16,1 C 15,6 C 93 % 15 lf 1019,4 hPa 0,0 l/m 0 min 2 min 135 W/m 4,2 km/h (1 Bft) 95,74 %
10.08.2017 17:38 17,2 C 16,1 C 15,6 C 93 % 15 lf 1019,4 hPa 0,0 l/m 0 min 2 min 133 W/m 4,2 km/h (1 Bft) 93,62 %
10.08.2017 17:40 17,2 C 16,1 C 15,6 C 93 % 15 lf 1019,4 hPa 0,0 l/m 0 min 2 min 134 W/m 4,2 km/h (1 Bft) 95,74 %
10.08.2017 17:42 17,2 C 16,1 C 15,6 C 93 % 15 lf 1019,3 hPa 0,0 l/m 0 min 2 min 133 W/m 2,1 km/h (1 Bft) 95,74 %
10.08.2017 17:44 17,2 C 16,1 C 15,0 C 93 % 15 lf 1019,4 hPa 0,0 l/m 0 min 2 min 132 W/m 4,2 km/h (1 Bft) 95,65 %
10.08.2017 17:46 17,2 C 16,1 C 15,0 C 93 % 15 lf 1019,4 hPa 0,0 l/m 0 min 2 min 133 W/m 4,2 km/h (1 Bft) 89,36 %
10.08.2017 17:48 17,2 C 16,1 C 15,0 C 93 % 15 lf 1019,3 hPa 0,0 l/m 0 min 2 min 131 W/m 4,2 km/h (1 Bft) 95,74 %
10.08.2017 17:50 17,2 C 16,1 C 15,0 C 93 % 15 lf 1019,3 hPa 0,0 l/m 0 min 2 min 129 W/m 2,1 km/h (1 Bft) 95,74 %
10.08.2017 17:52 17,2 C 16,1 C 15,0 C 93 % 15 lf 1019,3 hPa 0,0 l/m 0 min 2 min 130 W/m 2,1 km/h (1 Bft) 95,74 %
10.08.2017 17:54 17,2 C 16,1 C 15,0 C 93 % 15 lf 1019,2 hPa 0,0 l/m 0 min 2 min 131 W/m 2,1 km/h (1 Bft) 95,74 %
10.08.2017 17:56 17,1 C 16,1 C 15,0 C 93 % 15 lf 1019,3 hPa 0,0 l/m 0 min 2 min 131 W/m 0,0 km/h (0 Bft) 93,48 %
10.08.2017 17:58 17,1 C 16,1 C 15,0 C 93 % 15 lf 1019,2 hPa 0,2 l/m 0 min 2 min 132 W/m 2,1 km/h (1 Bft) 91,49 %
10.08.2017 18:00 17,1 C 16,1 C 15,0 C 93 % 15 lf 1019,2 hPa 0,0 l/m 0 min 2 min 138 W/m 2,1 km/h (1 Bft) 95,74 %
10.08.2017 18:02 17,1 C 16,1 C 15,0 C 93 % 15 lf 1019,2 hPa 0,0 l/m 0 min 2 min 141 W/m 0,0 km/h (0 Bft) 91,49 %
10.08.2017 18:04 17,1 C 16,1 C 15,0 C 93 % 15 lf 1019,3 hPa 0,0 l/m 0 min 2 min 139 W/m 0,0 km/h (0 Bft) 95,74 %
10.08.2017 18:06 17,1 C 16,1 C 15,0 C 93 % 15 lf 1019,3 hPa 0,0 l/m 0 min 2 min 137 W/m 0,0 km/h (0 Bft) 91,49 %
10.08.2017 18:10 17,1 C 16,1 C 15,6 C 93 % 15 lf 1019,2 hPa 0,0 l/m 0 min 4 min 140 W/m 4,2 km/h (1 Bft) 95,60 %
10.08.2017 18:12 17,0 C 16,1 C 15,6 C 93 % 15 lf 1019,3 hPa 0,0 l/m 0 min 2 min 143 W/m 4,2 km/h (1 Bft) 91,49 %
10.08.2017 18:14 17,0 C 16,7 C 15,6 C 93 % 15 lf 1019,3 hPa 0,0 l/m 0 min 2 min 146 W/m 0,0 km/h (0 Bft) 93,48 %
10.08.2017 18:16 17,1 C 16,7 C 15,6 C 93 % 15 lf 1019,2 hPa 0,0 l/m 0 min 2 min 146 W/m 2,1 km/h (1 Bft) 95,74 %
10.08.2017 18:18 17,1 C 16,7 C 15,6 C 93 % 15 lf 1019,1 hPa 0,0 l/m 0 min 2 min 142 W/m 2,1 km/h (1 Bft) 97,87 %
10.08.2017 18:20 17,1 C 16,1 C 15,6 C 93 % 15 lf 1019,2 hPa 0,0 l/m 0 min 2 min 141 W/m 0,0 km/h (0 Bft) 93,22 %
10.08.2017 18:22 17,1 C 16,1 C 15,6 C 93 % 15 lf 1019,1 hPa 0,0 l/m 0 min 2 min 140 W/m 0,0 km/h (0 Bft) 94,29 %
10.08.2017 18:24 17,1 C 16,1 C 15,6 C 93 % 15 lf 1019,2 hPa 0,0 l/m 0 min 2 min 140 W/m 0,0 km/h (0 Bft) 97,87 %
10.08.2017 18:26 17,1 C 16,1 C 15,6 C 93 % 15 lf 1019,1 hPa 0,0 l/m 0 min 2 min 139 W/m 2,1 km/h (1 Bft) 100,00 %
10.08.2017 18:28 17,1 C 16,7 C 15,6 C 93 % 15 lf 1019,1 hPa 0,0 l/m 0 min 2 min 143 W/m 4,2 km/h (1 Bft) 97,87 %
10.08.2017 18:30 17,1 C 16,7 C 15,6 C 93 % 15 lf 1019,0 hPa 0,0 l/m 0 min 2 min 141 W/m 4,2 km/h (1 Bft) 93,62 %
10.08.2017 18:32 17,1 C 16,7 C 15,6 C 93 % 15 lf 1019,1 hPa 0,0 l/m 0 min 2 min 119 W/m 4,2 km/h (1 Bft) 95,74 %
10.08.2017 18:34 17,1 C 16,7 C 15,6 C 93 % 15 lf 1019,1 hPa 0,0 l/m 0 min 2 min 68 W/m 4,2 km/h (1 Bft) 95,74 %
10.08.2017 18:36 17,1 C 16,7 C 15,6 C 93 % 15 lf 1019,1 hPa 0,0 l/m 0 min 2 min 68 W/m 4,2 km/h (1 Bft) 100,00 %
10.08.2017 18:38 17,1 C 16,1 C 15,0 C 93 % 15 lf 1019,1 hPa 0,0 l/m 0 min 2 min 67 W/m 6,3 km/h (2 Bft) 97,83 %
10.08.2017 18:40 17,1 C 16,1 C 15,0 C 94 % 15 lf 1019,1 hPa 0,0 l/m 0 min 0 min 68 W/m 4,2 km/h (1 Bft) 97,87 %
10.08.2017 18:42 17,1 C 16,1 C 15,0 C 93 % 15 lf 1019,2 hPa 0,0 l/m 0 min 2 min 65 W/m 4,2 km/h (1 Bft) 93,62 %
10.08.2017 18:44 17,1 C 16,1 C 15,0 C 93 % 15 lf 1019,1 hPa 0,0 l/m 0 min 2 min 64 W/m 4,2 km/h (1 Bft) 95,74 %
10.08.2017 18:46 17,1 C 16,1 C 15,0 C 93 % 15 lf 1019,1 hPa 0,0 l/m 0 min 2 min 64 W/m 0,0 km/h (0 Bft) 95,74 %
10.08.2017 18:48 17,0 C 16,1 C 15,0 C 93 % 15 lf 1019,1 hPa 0,0 l/m 0 min 2 min 64 W/m 0,0 km/h (0 Bft) 93,62 %
10.08.2017 18:50 17,0 C 16,1 C 15,0 C 93 % 15 lf 1019,0 hPa 0,2 l/m 0 min 2 min 63 W/m 2,1 km/h (1 Bft) 93,10 %
10.08.2017 18:52 17,0 C 15,6 C 15,0 C 93 % 15 lf 1019,1 hPa 0,0 l/m 0 min 2 min 64 W/m 2,1 km/h (1 Bft) 100,00 %
10.08.2017 18:54 16,9 C 15,6 C 14,4 C 93 % 15 lf 1019,1 hPa 0,0 l/m 0 min 2 min 63 W/m 4,2 km/h (1 Bft) 95,74 %
10.08.2017 18:56 16,9 C 15,6 C 14,4 C 93 % 15 lf 1019,1 hPa 0,0 l/m 0 min 2 min 63 W/m 2,1 km/h (1 Bft) 95,74 %
10.08.2017 18:58 16,9 C 15,6 C 15,0 C 93 % 15 lf 1019,2 hPa 0,0 l/m 0 min 2 min 63 W/m 2,1 km/h (1 Bft) 95,74 %
10.08.2017 19:00 16,9 C 15,6 C 15,0 C 93 % 15 lf 1019,2 hPa 0,0 l/m 0 min 2 min 63 W/m 2,1 km/h (1 Bft) 93,62 %
10.08.2017 19:02 16,9 C 15,6 C 15,0 C 93 % 15 lf 1019,2 hPa 0,0 l/m 0 min 2 min 65 W/m 0,0 km/h (0 Bft) 95,92 %
10.08.2017 19:04 16,9 C 15,6 C 15,0 C 93 % 15 lf 1019,2 hPa 0,0 l/m 0 min 2 min 64 W/m 2,1 km/h (1 Bft) 93,62 %
10.08.2017 19:06 16,9 C 15,6 C 15,0 C 93 % 15 lf 1019,2 hPa 0,0 l/m 0 min 2 min 66 W/m 2,1 km/h (1 Bft) 95,65 %
10.08.2017 19:08 16,9 C 15,6 C 15,0 C 93 % 15 lf 1019,3 hPa 0,0 l/m 0 min 2 min 65 W/m 2,1 km/h (1 Bft) 91,49 %
10.08.2017 19:10 16,8 C 15,6 C 15,0 C 93 % 15 lf 1019,3 hPa 0,2 l/m 0 min 2 min 64 W/m 0,0 km/h (0 Bft) 91,49 %
10.08.2017 19:12 16,9 C 16,1 C 15,0 C 93 % 15 lf 1019,3 hPa 0,0 l/m 0 min 2 min 64 W/m 0,0 km/h (0 Bft) 93,62 %
10.08.2017 19:14 16,8 C 16,1 C 15,0 C 93 % 15 lf 1019,3 hPa 0,0 l/m 0 min 2 min 64 W/m 0,0 km/h (0 Bft) 95,74 %
10.08.2017 19:16 16,8 C 15,6 C 15,0 C 93 % 15 lf 1019,3 hPa 0,0 l/m 0 min 2 min 64 W/m 0,0 km/h (0 Bft) 95,74 %
10.08.2017 19:18 16,8 C 15,6 C 15,0 C 93 % 15 lf 1019,2 hPa 0,0 l/m 0 min 2 min 65 W/m 0,0 km/h (0 Bft) 95,65 %
10.08.2017 19:20 16,8 C 15,6 C 15,0 C 93 % 15 lf 1019,3 hPa 0,0 l/m 0 min 2 min 64 W/m 0,0 km/h (0 Bft) 95,74 %
10.08.2017 19:22 16,8 C 15,6 C 15,0 C 93 % 15 lf 1019,3 hPa 0,0 l/m 0 min 2 min 63 W/m 0,0 km/h (0 Bft) 97,87 %
10.08.2017 19:24 16,8 C 15,6 C 15,0 C 93 % 15 lf 1019,3 hPa 0,0 l/m 0 min 2 min 62 W/m 0,0 km/h (0 Bft) 97,87 %
10.08.2017 19:26 16,8 C 15,6 C 15,0 C 93 % 15 lf 1019,3 hPa 0,0 l/m 0 min 2 min 61 W/m 0,0 km/h (0 Bft) 97,87 %
10.08.2017 19:28 16,8 C 15,6 C 15,0 C 93 % 15 lf 1019,3 hPa 0,0 l/m 0 min 2 min 62 W/m 0,0 km/h (0 Bft) 93,62 %
10.08.2017 19:30 16,8 C 15,6 C 15,0 C 93 % 15 lf 1019,4 hPa 0,2 l/m 0 min 2 min 62 W/m 0,0 km/h (0 Bft) 97,83 %
10.08.2017 19:32 16,8 C 15,6 C 15,0 C 94 % 15 lf 1019,3 hPa 0,0 l/m 0 min 2 min 61 W/m 0,0 km/h (0 Bft) 97,87 %
10.08.2017 19:34 16,8 C 15,6 C 15,0 C 94 % 15 lf 1019,4 hPa 0,0 l/m 0 min 2 min 62 W/m 0,0 km/h (0 Bft) 100,00 %
10.08.2017 19:36 16,8 C 15,6 C 15,0 C 94 % 15 lf 1019,4 hPa 0,2 l/m 0 min 2 min 63 W/m 0,0 km/h (0 Bft) 97,87 %
10.08.2017 19:38 16,7 C 15,6 C 15,0 C 94 % 15 lf 1019,4 hPa 0,0 l/m 0 min 2 min 64 W/m 0,0 km/h (0 Bft) 100,00 %
10.08.2017 19:40 16,7 C 15,6 C 15,0 C 94 % 15 lf 1019,3 hPa 0,0 l/m 0 min 2 min 63 W/m 0,0 km/h (0 Bft) 97,87 %
10.08.2017 19:42 16,7 C 15,6 C 15,0 C 94 % 15 lf 1019,3 hPa 0,0 l/m 0 min 2 min 62 W/m 0,0 km/h (0 Bft) 100,00 %
10.08.2017 19:44 16,7 C 15,6 C 15,0 C 94 % 15 lf 1019,3 hPa 0,2 l/m 0 min 2 min 62 W/m 0,0 km/h (0 Bft) 100,00 %
10.08.2017 19:46 16,7 C 15,6 C 15,0 C 94 % 15 lf 1019,3 hPa 0,0 l/m 0 min 2 min 61 W/m 4,2 km/h (1 Bft) 97,87 %
10.08.2017 19:48 16,7 C 15,6 C 14,4 C 94 % 15 lf 1019,2 hPa 0,0 l/m 0 min 2 min 61 W/m 6,3 km/h (2 Bft) 97,87 %
10.08.2017 19:50 16,7 C 15,6 C 14,4 C 94 % 15 lf 1019,2 hPa 0,0 l/m 0 min 2 min 61 W/m 6,3 km/h (2 Bft) 100,00 %
10.08.2017 19:52 16,6 C 15,6 C 14,4 C 94 % 15 lf 1019,2 hPa 0,0 l/m 0 min 2 min 60 W/m 4,2 km/h (1 Bft) 100,00 %
10.08.2017 19:54 16,6 C 15,6 C 14,4 C 94 % 15 lf 1019,2 hPa 0,2 l/m 0 min 2 min 60 W/m 6,3 km/h (2 Bft) 100,00 %
10.08.2017 19:56 16,6 C 15,6 C 14,4 C 94 % 15 lf 1019,2 hPa 0,2 l/m 0 min 2 min 60 W/m 4,2 km/h (1 Bft) 100,00 %
10.08.2017 19:58 16,6 C 15,6 C 14,4 C 94 % 15 lf 1019,1 hPa 0,0 l/m 0 min 2 min 61 W/m 6,3 km/h (2 Bft) 100,00 %
10.08.2017 20:00 16,6 C 15,6 C 14,4 C 94 % 15 lf 1019,0 hPa 0,0 l/m 0 min 2 min 60 W/m 8,4 km/h (2 Bft) 97,87 %
10.08.2017 20:02 16,5 C 15,6 C 14,4 C 94 % 15 lf 1018,9 hPa 0,2 l/m 0 min 2 min 61 W/m 10,5 km/h (2 Bft) 100,00 %
10.08.2017 20:04 16,5 C 15,6 C 14,4 C 94 % 15 lf 1018,9 hPa 0,0 l/m 0 min 2 min 61 W/m 10,5 km/h (2 Bft) 100,00 %
10.08.2017 20:06 16,5 C 15,6 C 14,4 C 94 % 15 lf 1018,9 hPa 0,0 l/m 0 min 2 min 60 W/m 8,4 km/h (2 Bft) 100,00 %
10.08.2017 20:08 16,5 C 15,6 C 14,4 C 95 % 15 lf 1019,0 hPa 0,2 l/m 0 min 2 min 61 W/m 4,2 km/h (1 Bft) 100,00 %
10.08.2017 20:10 16,4 C 15,6 C 14,4 C 95 % 15 lf 1019,0 hPa 0,0 l/m 0 min 2 min 61 W/m 4,2 km/h (1 Bft) 100,00 %
10.08.2017 20:12 16,4 C 15,6 C 15,0 C 95 % 15 lf 1019,1 hPa 0,0 l/m 0 min 2 min 55 W/m 2,1 km/h (1 Bft) 100,00 %
10.08.2017 20:14 16,4 C 15,6 C 15,0 C 95 % 15 lf 1019,1 hPa 0,0 l/m 0 min 2 min 20 W/m 2,1 km/h (1 Bft) 100,00 %
10.08.2017 20:16 16,4 C 15,6 C 15,0 C 95 % 15 lf 1019,1 hPa 0,2 l/m 0 min 2 min 19 W/m 4,2 km/h (1 Bft) 100,00 %
10.08.2017 20:18 16,4 C 15,6 C 15,0 C 95 % 15 lf 1019,1 hPa 0,0 l/m 0 min 2 min 19 W/m 2,1 km/h (1 Bft) 100,00 %
10.08.2017 20:20 16,4 C 15,6 C 15,0 C 95 % 15 lf 1019,2 hPa 0,0 l/m 0 min 2 min 19 W/m 4,2 km/h (1 Bft) 100,00 %
10.08.2017 20:22 16,4 C 15,6 C 15,0 C 95 % 15 lf 1019,3 hPa 0,0 l/m 0 min 2 min 19 W/m 2,1 km/h (1 Bft) 97,87 %
10.08.2017 20:24 16,4 C 15,6 C 15,0 C 95 % 15 lf 1019,3 hPa 0,2 l/m 0 min 2 min 19 W/m 2,1 km/h (1 Bft) 100,00 %
10.08.2017 20:26 16,4 C 15,6 C 15,0 C 95 % 15 lf 1019,2 hPa 0,0 l/m 0 min 2 min 19 W/m 0,0 km/h (0 Bft) 95,74 %
10.08.2017 20:28 16,3 C 15,6 C 15,0 C 95 % 15 lf 1019,2 hPa 0,0 l/m 0 min 2 min 19 W/m 2,1 km/h (1 Bft) 95,65 %
10.08.2017 20:30 16,3 C 15,6 C 14,4 C 95 % 15 lf 1019,1 hPa 0,0 l/m 0 min 2 min 19 W/m 0,0 km/h (0 Bft) 95,74 %
10.08.2017 20:32 16,3 C 15,6 C 14,4 C 95 % 15 lf 1019,1 hPa 0,0 l/m 0 min 2 min 19 W/m 0,0 km/h (0 Bft) 97,87 %
10.08.2017 20:34 16,3 C 15,6 C 14,4 C 95 % 15 lf 1019,1 hPa 0,0 l/m 0 min 2 min 19 W/m 2,1 km/h (1 Bft) 95,74 %
10.08.2017 20:36 16,3 C 15,0 C 14,4 C 95 % 15 lf 1019,0 hPa 0,0 l/m 0 min 2 min 19 W/m 2,1 km/h (1 Bft) 92,45 %
10.08.2017 20:38 16,3 C 15,0 C 14,4 C 95 % 15 lf 1018,9 hPa 0,0 l/m 0 min 2 min 19 W/m 6,3 km/h (2 Bft) 95,74 %
10.08.2017 20:40 16,3 C 15,0 C 14,4 C 95 % 15 lf 1018,9 hPa 0,0 l/m 0 min 2 min 18 W/m 4,2 km/h (1 Bft) 95,74 %
10.08.2017 20:42 16,3 C 15,0 C 14,4 C 95 % 15 lf 1018,9 hPa 0,2 l/m 0 min 2 min 18 W/m 6,3 km/h (2 Bft) 95,74 %
10.08.2017 20:44 16,3 C 15,0 C 14,4 C 95 % 15 lf 1018,9 hPa 0,0 l/m 0 min 2 min 18 W/m 4,2 km/h (1 Bft) 95,65 %
10.08.2017 20:46 16,2 C 15,0 C 14,4 C 95 % 15 lf 1018,9 hPa 0,0 l/m 0 min 2 min 18 W/m 4,2 km/h (1 Bft) 93,62 %
10.08.2017 20:48 16,2 C 15,0 C 14,4 C 95 % 15 lf 1019,0 hPa 0,0 l/m 0 min 2 min 18 W/m 4,2 km/h (1 Bft) 95,74 %
10.08.2017 20:50 16,2 C 15,0 C 14,4 C 95 % 15 lf 1019,0 hPa 0,0 l/m 0 min 2 min 19 W/m 0,0 km/h (0 Bft) 93,62 %
10.08.2017 20:52 16,2 C 15,0 C 14,4 C 95 % 15 lf 1019,0 hPa 0,0 l/m 0 min 2 min 19 W/m 4,2 km/h (1 Bft) 93,62 %
10.08.2017 20:54 16,2 C 15,0 C 14,4 C 95 % 15 lf 1019,0 hPa 0,0 l/m 0 min 2 min 18 W/m 4,2 km/h (1 Bft) 82,98 %
10.08.2017 20:56 16,2 C 15,0 C 14,4 C 95 % 15 lf 1019,0 hPa 0,0 l/m 0 min 0 min 18 W/m 4,2 km/h (1 Bft) 93,48 %
10.08.2017 20:58 16,2 C 15,0 C 14,4 C 95 % 15 lf 1019,0 hPa 0,0 l/m 0 min 0 min 17 W/m 4,2 km/h (1 Bft) 93,62 %
10.08.2017 21:00 16,1 C 15,0 C 14,4 C 95 % 15 lf 1019,0 hPa 0,0 l/m 0 min 0 min 18 W/m 4,2 km/h (1 Bft) 93,62 %
10.08.2017 21:02 16,1 C 15,0 C 14,4 C 95 % 15 lf 1019,0 hPa 0,0 l/m 0 min 2 min 18 W/m 0,0 km/h (0 Bft) 91,49 %
10.08.2017 21:04 16,1 C 15,0 C 14,4 C 95 % 15 lf 1019,1 hPa 0,0 l/m 0 min 0 min 17 W/m 0,0 km/h (0 Bft) 93,62 %
10.08.2017 21:06 16,1 C 15,0 C 14,4 C 95 % 15 lf 1019,3 hPa 0,0 l/m 0 min 0 min 18 W/m 0,0 km/h (0 Bft) 93,62 %
10.08.2017 21:08 16,1 C 15,0 C 14,4 C 96 % 15 lf 1019,3 hPa 0,0 l/m 0 min 0 min 17 W/m 0,0 km/h (0 Bft) 93,48 %
10.08.2017 21:10 16,1 C 15,0 C 14,4 C 96 % 15 lf 1019,2 hPa 0,0 l/m 0 min 0 min 18 W/m 0,0 km/h (0 Bft) 95,74 %
10.08.2017 21:12 16,1 C 15,0 C 14,4 C 96 % 15 lf 1019,2 hPa 0,0 l/m 0 min 0 min 18 W/m 4,2 km/h (1 Bft) 93,62 %
10.08.2017 21:14 16,1 C 15,0 C 14,4 C 96 % 15 lf 1019,1 hPa 0,0 l/m 0 min 2 min 17 W/m 6,3 km/h (2 Bft) 95,74 %
10.08.2017 21:16 16,1 C 15,0 C 14,4 C 96 % 15 lf 1019,1 hPa 0,0 l/m 0 min 0 min 18 W/m 4,2 km/h (1 Bft) 97,87 %
10.08.2017 21:18 16,0 C 15,0 C 14,4 C 96 % 15 lf 1019,1 hPa 0,0 l/m 0 min 0 min 18 W/m 4,2 km/h (1 Bft) 97,87 %
10.08.2017 21:20 16,0 C 15,0 C 14,4 C 96 % 15 lf 1019,1 hPa 0,0 l/m 0 min 0 min 18 W/m 0,0 km/h (0 Bft) 95,65 %
10.08.2017 21:22 16,0 C 15,0 C 14,4 C 96 % 15 lf 1019,2 hPa 0,0 l/m 0 min 0 min 0 W/m 0,0 km/h (0 Bft) 95,74 %
10.08.2017 21:24 16,0 C 15,0 C 14,4 C 96 % 15 lf 1019,0 hPa 0,0 l/m 0 min 0 min 0 W/m 0,0 km/h (0 Bft) 93,62 %
10.08.2017 21:26 16,0 C 15,0 C 14,4 C 96 % 15 lf 1019,1 hPa 0,0 l/m 0 min 0 min 0 W/m 0,0 km/h (0 Bft) 89,36 %
10.08.2017 21:28 15,9 C 15,0 C 14,4 C 96 % 15 lf 1019,0 hPa 0,0 l/m 0 min 0 min 0 W/m 4,2 km/h (1 Bft) 93,62 %
10.08.2017 21:30 15,9 C 15,0 C 14,4 C 96 % 15 lf 1019,0 hPa 0,0 l/m 0 min 0 min 0 W/m 4,2 km/h (1 Bft) 97,87 %
10.08.2017 21:32 15,9 C 15,0 C 14,4 C 96 % 15 lf 1019,1 hPa 0,0 l/m 0 min 0 min 0 W/m 6,3 km/h (2 Bft) 95,65 %
10.08.2017 21:34 15,9 C 15,0 C 14,4 C 96 % 15 lf 1019,0 hPa 0,0 l/m 0 min 0 min 0 W/m 6,3 km/h (2 Bft) 95,74 %
10.08.2017 21:36 15,9 C 15,0 C 14,4 C 96 % 15 lf 1019,0 hPa 0,0 l/m 0 min 0 min 0 W/m 4,2 km/h (1 Bft) 100,00 %
10.08.2017 21:38 15,9 C 15,0 C 14,4 C 96 % 15 lf 1019,0 hPa 0,0 l/m 0 min 0 min 0 W/m 6,3 km/h (2 Bft) 93,62 %
10.08.2017 21:40 15,9 C 15,0 C 14,4 C 96 % 15 lf 1018,9 hPa 0,0 l/m 0 min 0 min 0 W/m 8,4 km/h (2 Bft) 95,74 %
10.08.2017 21:42 15,9 C 15,0 C 14,4 C 96 % 15 lf 1018,9 hPa 0,0 l/m 0 min 0 min 0 W/m 8,4 km/h (2 Bft) 95,74 %
10.08.2017 21:44 15,9 C 15,0 C 14,4 C 96 % 15 lf 1019,0 hPa 0,0 l/m 0 min 0 min 0 W/m 8,4 km/h (2 Bft) 93,62 %
10.08.2017 21:46 15,9 C 15,0 C 14,4 C 96 % 15 lf 1019,1 hPa 0,0 l/m 0 min 0 min 0 W/m 6,3 km/h (2 Bft) 95,65 %
10.08.2017 21:48 15,9 C 15,0 C 14,4 C 96 % 15 lf 1019,1 hPa 0,0 l/m 0 min 0 min 0 W/m 6,3 km/h (2 Bft) 95,74 %
10.08.2017 21:50 15,8 C 15,0 C 14,4 C 96 % 15 lf 1019,1 hPa 0,0 l/m 0 min 0 min 0 W/m 8,4 km/h (2 Bft) 97,87 %
10.08.2017 21:52 15,8 C 15,0 C 14,4 C 96 % 15 lf 1019,1 hPa 0,0 l/m 0 min 0 min 0 W/m 6,3 km/h (2 Bft) 95,74 %
10.08.2017 21:54 15,8 C 15,0 C 14,4 C 96 % 15 lf 1019,1 hPa 0,0 l/m 0 min 0 min 0 W/m 4,2 km/h (1 Bft) 97,87 %
10.08.2017 21:56 15,8 C 15,0 C 14,4 C 96 % 15 lf 1019,1 hPa 0,0 l/m 0 min 0 min 0 W/m 4,2 km/h (1 Bft) 97,87 %
10.08.2017 21:58 15,8 C 15,0 C 14,4 C 96 % 15 lf 1019,2 hPa 0,0 l/m 0 min 0 min 0 W/m 6,3 km/h (2 Bft) 91,30 %
10.08.2017 22:00 15,8 C 15,0 C 14,4 C 96 % 15 lf 1019,2 hPa 0,0 l/m 0 min 0 min 0 W/m 8,4 km/h (2 Bft) 97,87 %
10.08.2017 22:02 15,8 C 15,0 C 14,4 C 96 % 15 lf 1019,1 hPa 0,0 l/m 0 min 0 min 0 W/m 8,4 km/h (2 Bft) 93,62 %
10.08.2017 22:04 15,8 C 15,0 C 14,4 C 96 % 15 lf 1019,1 hPa 0,0 l/m 0 min 0 min 0 W/m 6,3 km/h (2 Bft) 97,87 %
10.08.2017 22:06 15,8 C 15,0 C 14,4 C 96 % 15 lf 1019,2 hPa 0,0 l/m 0 min 0 min 0 W/m 6,3 km/h (2 Bft) 97,96 %
10.08.2017 22:08 15,8 C 15,0 C 14,4 C 96 % 15 lf 1019,2 hPa 0,0 l/m 0 min 0 min 0 W/m 6,3 km/h (2 Bft) 95,74 %
10.08.2017 22:10 15,8 C 15,0 C 14,4 C 96 % 15 lf 1019,2 hPa 0,0 l/m 0 min 0 min 0 W/m 6,3 km/h (2 Bft) 97,87 %
10.08.2017 22:12 15,7 C 15,0 C 14,4 C 96 % 15 lf 1019,2 hPa 0,0 l/m 0 min 0 min 0 W/m 6,3 km/h (2 Bft) 97,87 %
10.08.2017 22:14 15,7 C 15,0 C 14,4 C 96 % 15 lf 1019,2 hPa 0,0 l/m 0 min 0 min 0 W/m 8,4 km/h (2 Bft) 95,65 %
10.08.2017 22:16 15,7 C 15,0 C 14,4 C 96 % 15 lf 1019,2 hPa 0,0 l/m 0 min 0 min 0 W/m 8,4 km/h (2 Bft) 97,87 %
10.08.2017 22:18 15,7 C 15,0 C 14,4 C 96 % 15 lf 1019,2 hPa 0,0 l/m 0 min 0 min 0 W/m 6,3 km/h (2 Bft) 93,62 %
10.08.2017 22:20 15,7 C 15,0 C 14,4 C 96 % 15 lf 1019,1 hPa 0,0 l/m 0 min 0 min 0 W/m 6,3 km/h (2 Bft) 97,87 %
10.08.2017 22:22 15,7 C 15,0 C 14,4 C 96 % 15 lf 1019,2 hPa 0,0 l/m 0 min 0 min 0 W/m 4,2 km/h (1 Bft) 97,87 %
10.08.2017 22:24 15,7 C 15,0 C 13,9 C 96 % 15 lf 1019,2 hPa 0,0 l/m 0 min 0 min 0 W/m 4,2 km/h (1 Bft) 95,74 %
10.08.2017 22:26 15,7 C 15,0 C 13,9 C 96 % 15 lf 1019,2 hPa 0,0 l/m 0 min 0 min 0 W/m 2,1 km/h (1 Bft) 95,65 %
10.08.2017 22:28 15,7 C 15,0 C 13,9 C 96 % 15 lf 1019,2 hPa 0,0 l/m 0 min 0 min 0 W/m 0,0 km/h (0 Bft) 93,62 %
10.08.2017 22:30 15,7 C 15,0 C 14,4 C 96 % 15 lf 1019,2 hPa 0,0 l/m 0 min 2 min 0 W/m 0,0 km/h (0 Bft) 97,87 %
10.08.2017 22:32 15,7 C 15,0 C 14,4 C 96 % 15 lf 1019,2 hPa 0,0 l/m 0 min 0 min 0 W/m 0,0 km/h (0 Bft) 97,87 %
10.08.2017 22:34 15,7 C 15,0 C 14,4 C 96 % 15 lf 1019,1 hPa 0,0 l/m 0 min 0 min 0 W/m 0,0 km/h (0 Bft) 95,74 %
10.08.2017 22:36 15,6 C 15,0 C 13,9 C 96 % 15 lf 1019,1 hPa 0,0 l/m 0 min 0 min 0 W/m 0,0 km/h (0 Bft) 97,87 %
10.08.2017 22:38 15,6 C 15,0 C 13,9 C 96 % 15 lf 1019,0 hPa 0,0 l/m 0 min 0 min 0 W/m 0,0 km/h (0 Bft) 97,83 %
10.08.2017 22:40 15,6 C 15,0 C 14,4 C 96 % 15 lf 1019,0 hPa 0,0 l/m 0 min 2 min 0 W/m 0,0 km/h (0 Bft) 97,87 %
10.08.2017 22:42 15,6 C 15,0 C 14,4 C 96 % 15 lf 1018,9 hPa 0,0 l/m 0 min 0 min 0 W/m 0,0 km/h (0 Bft) 95,74 %
10.08.2017 22:44 15,6 C 15,0 C 14,4 C 96 % 15 lf 1018,9 hPa 0,0 l/m 0 min 0 min 0 W/m 0,0 km/h (0 Bft) 97,87 %
10.08.2017 22:46 15,6 C 15,0 C 14,4 C 96 % 15 lf 1018,9 hPa 0,0 l/m 0 min 0 min 0 W/m 6,3 km/h (2 Bft) 97,87 %
10.08.2017 22:48 15,6 C 15,0 C 14,4 C 97 % 15 lf 1018,9 hPa 0,0 l/m 0 min 0 min 0 W/m 6,3 km/h (2 Bft) 97,87 %
10.08.2017 22:50 15,6 C 15,0 C 14,4 C 97 % 15 lf 1018,9 hPa 0,0 l/m 0 min 0 min 0 W/m 6,3 km/h (2 Bft) 97,83 %
10.08.2017 22:52 15,6 C 15,0 C 14,4 C 97 % 15 lf 1019,0 hPa 0,0 l/m 0 min 0 min 0 W/m 4,2 km/h (1 Bft) 97,87 %
10.08.2017 22:54 15,6 C 15,0 C 14,4 C 97 % 15 lf 1019,0 hPa 0,0 l/m 0 min 0 min 0 W/m 4,2 km/h (1 Bft) 97,87 %
10.08.2017 22:56 15,6 C 15,0 C 14,4 C 97 % 15 lf 1018,9 hPa 0,0 l/m 0 min 2 min 0 W/m 6,3 km/h (2 Bft) 95,74 %
10.08.2017 22:58 15,7 C 15,0 C 14,4 C 97 % 15 lf 1018,9 hPa 0,0 l/m 0 min 2 min 0 W/m 6,3 km/h (2 Bft) 95,74 %
10.08.2017 23:00 15,7 C 15,0 C 13,9 C 97 % 15 lf 1018,9 hPa 0,0 l/m 0 min 2 min 0 W/m 6,3 km/h (2 Bft) 97,83 %
10.08.2017 23:02 15,6 C 15,0 C 13,9 C 97 % 15 lf 1018,9 hPa 0,0 l/m 0 min 2 min 0 W/m 4,2 km/h (1 Bft) 93,62 %
10.08.2017 23:04 15,6 C 15,0 C 13,9 C 97 % 15 lf 1018,9 hPa 0,0 l/m 0 min 2 min 0 W/m 6,3 km/h (2 Bft) 95,74 %
10.08.2017 23:06 15,6 C 15,0 C 13,9 C 97 % 15 lf 1018,9 hPa 0,0 l/m 0 min 2 min 0 W/m 4,2 km/h (1 Bft) 95,74 %
10.08.2017 23:08 15,6 C 15,0 C 13,9 C 97 % 15 lf 1018,9 hPa 0,0 l/m 0 min 2 min 0 W/m 4,2 km/h (1 Bft) 100,00 %
10.08.2017 23:10 15,6 C 15,0 C 14,4 C 97 % 15 lf 1019,0 hPa 0,0 l/m 0 min 2 min 0 W/m 6,3 km/h (2 Bft) 100,00 %
10.08.2017 23:12 15,6 C 15,0 C 14,4 C 97 % 15 lf 1019,0 hPa 0,0 l/m 0 min 2 min 0 W/m 4,2 km/h (1 Bft) 100,00 %
10.08.2017 23:14 15,6 C 15,0 C 14,4 C 97 % 15 lf 1019,1 hPa 0,0 l/m 0 min 2 min 0 W/m 6,3 km/h (2 Bft) 100,00 %
10.08.2017 23:16 15,6 C 15,0 C 14,4 C 97 % 15 lf 1019,0 hPa 0,0 l/m 0 min 0 min 0 W/m 4,2 km/h (1 Bft) 95,74 %
10.08.2017 23:18 15,6 C 15,0 C 14,4 C 97 % 15 lf 1019,0 hPa 0,0 l/m 0 min 0 min 0 W/m 4,2 km/h (1 Bft) 95,74 %
10.08.2017 23:20 15,6 C 15,0 C 14,4 C 97 % 15 lf 1019,1 hPa 0,0 l/m 0 min 0 min 0 W/m 4,2 km/h (1 Bft) 95,74 %
10.08.2017 23:22 15,6 C 15,0 C 14,4 C 97 % 15 lf 1019,1 hPa 0,0 l/m 0 min 0 min 0 W/m 6,3 km/h (2 Bft) 95,74 %
10.08.2017 23:24 15,6 C 15,0 C 14,4 C 97 % 15 lf 1019,2 hPa 0,0 l/m 0 min 0 min 0 W/m 4,2 km/h (1 Bft) 97,83 %
10.08.2017 23:26 15,6 C 15,0 C 14,4 C 97 % 15 lf 1019,2 hPa 0,0 l/m 0 min 0 min 0 W/m 6,3 km/h (2 Bft) 95,74 %
10.08.2017 23:28 15,6 C 15,0 C 14,4 C 97 % 15 lf 1019,2 hPa 0,0 l/m 0 min 2 min 0 W/m 6,3 km/h (2 Bft) 95,74 %
10.08.2017 23:30 15,6 C 15,0 C 14,4 C 97 % 15 lf 1019,2 hPa 0,0 l/m 0 min 2 min 0 W/m 4,2 km/h (1 Bft) 97,87 %
10.08.2017 23:32 15,6 C 15,0 C 14,4 C 97 % 15 lf 1019,2 hPa 0,0 l/m 0 min 2 min 0 W/m 8,4 km/h (2 Bft) 95,74 %
10.08.2017 23:34 15,6 C 15,0 C 14,4 C 97 % 15 lf 1019,3 hPa 0,0 l/m 0 min 2 min 0 W/m 8,4 km/h (2 Bft) 97,87 %
10.08.2017 23:36 15,6 C 15,0 C 14,4 C 97 % 15 lf 1019,4 hPa 0,0 l/m 0 min 2 min 0 W/m 8,4 km/h (2 Bft) 95,65 %
10.08.2017 23:38 15,6 C 15,0 C 14,4 C 97 % 15 lf 1019,4 hPa 0,0 l/m 0 min 2 min 0 W/m 6,3 km/h (2 Bft) 97,87 %
10.08.2017 23:40 15,6 C 15,0 C 14,4 C 97 % 15 lf 1019,4 hPa 0,0 l/m 0 min 2 min 0 W/m 8,4 km/h (2 Bft) 97,87 %
10.08.2017 23:42 15,6 C 15,0 C 14,4 C 97 % 15 lf 1019,4 hPa 0,0 l/m 0 min 2 min 0 W/m 12,6 km/h (3 Bft) 97,87 %
10.08.2017 23:44 15,6 C 15,0 C 14,4 C 97 % 15 lf 1019,4 hPa 0,0 l/m 0 min 2 min 0 W/m 12,6 km/h (3 Bft) 97,87 %
10.08.2017 23:46 15,6 C 15,0 C 14,4 C 97 % 15 lf 1019,4 hPa 0,2 l/m 0 min 2 min 0 W/m 8,4 km/h (2 Bft) 93,62 %
10.08.2017 23:48 15,6 C 15,0 C 14,4 C 97 % 15 lf 1019,5 hPa 0,0 l/m 0 min 2 min 0 W/m 6,3 km/h (2 Bft) 97,83 %
10.08.2017 23:50 15,6 C 15,0 C 14,4 C 97 % 15 lf 1019,4 hPa 0,0 l/m 0 min 2 min 0 W/m 8,4 km/h (2 Bft) 95,74 %
10.08.2017 23:52 15,6 C 15,0 C 14,4 C 97 % 15 lf 1019,4 hPa 0,0 l/m 0 min 2 min 0 W/m 8,4 km/h (2 Bft) 95,74 %
10.08.2017 23:54 15,6 C 15,0 C 14,4 C 97 % 15 lf 1019,4 hPa 0,0 l/m 0 min 2 min 0 W/m 8,4 km/h (2 Bft) 97,87 %
10.08.2017 23:56 15,6 C 15,0 C 13,9 C 97 % 15 lf 1019,4 hPa 0,0 l/m 0 min 2 min 0 W/m 10,5 km/h (2 Bft) 97,87 %
10.08.2017 23:58 15,6 C 15,0 C 13,9 C 97 % 15 lf 1019,3 hPa 0,0 l/m 0 min 2 min 0 W/m 10,5 km/h (2 Bft) 97,87 %
_ Min-Zeit 05:48 04:06 03:50 00:00 00:00 00:04 - - - - 00:00 20:54
Minimum _ 14,5 C 13,3 C 12,8 C 82 % 0 lf 1016,9 hPa - - - - 0,0 km/h (0 Bft) 82,98 %
_ Max-Zeit 15:30 15:44 12:24 10:44 02:48 15:00 02:48 00:00 06:10 12:26 03:38 00:00
Maximum _ 17,3 C 18,3 C 16,1 C 98 % 15 lf 1020,0 hPa 0,2 l/m 0 min 4 min 264 W/m 12,6 km/h
SO (3 Bft)
100,00 %
Durchschnitt _ 15,9 C 15,4 C 14,5 C 94 % 12 lf 1018,9 hPa #11,0 l/m #0 min. #17:10 h 101 W/m 4,3 km/h (1 Bft) 96,38 %
© 2017 W. Hausmann